<?xml version="1.0" encoding="UTF-8" standalone="no" ?>
<gpx xmlns="http://www.topografix.com/GPX/1/1" xmlns:xsi="http://www.w3.org/2001/XMLSchema-instance" xsi:schemaLocation="http://www.topografix.com/GPX/1/1 http://www.topografix.com/GPX/1/1/gpx.xsd" version="1.1" creator="VisuGPX - https://www.visugpx.com">
  <metadata>
    <name>084_Circuit 57 km Les Herbiers_Les Herbiers édité par cth85.com</name>
    <desc><![CDATA[Circuit de 57 km passant par:
Les Herbiers
D23 direction Beaurepaire
Bazoges en Paillers
D23 La Boissière de Montaigu
D62 direction La Bruffière
Tiffauges 
D9 La Gaubretière
Les Herbiers]]></desc>
  </metadata>
  <trk>
    <name><![CDATA[57_084_cth85.com]]></name>
    <desc><![CDATA[

]]></desc>
    <extensions>
      <line xmlns="http://www.topografix.com/GPX/gpx_style/0/2">
        <color>0000FF</color>
        <width>4</width>
      </line>
    </extensions>
    <trkseg>
      <trkpt lat="46.86326" lon="-1.00624">
        <ele>118.2</ele>
        <time>2024-10-17T21:13:58.910Z</time>
        <extensions>
          <visugpx:TrkExtension xmlns:visugpx="https://www.visugpx.com/editgpx/">
            <visugpx:node>3</visugpx:node>
            </visugpx:TrkExtension>
        </extensions>
      </trkpt>
      <trkpt lat="46.86324" lon="-1.00626">
        <ele>118.2</ele>
        <time>2024-10-17T21:13:58.910Z</time>
      </trkpt>
      <trkpt lat="46.86272" lon="-1.00663">
        <ele>117.5</ele>
        <time>2024-10-17T21:13:58.910Z</time>
      </trkpt>
      <trkpt lat="46.86236" lon="-1.0068">
        <ele>116.2</ele>
        <time>2024-10-17T21:13:58.910Z</time>
      </trkpt>
      <trkpt lat="46.86248" lon="-1.00733">
        <ele>117.4</ele>
        <time>2024-10-17T21:13:58.910Z</time>
      </trkpt>
      <trkpt lat="46.8625" lon="-1.00748">
        <ele>117.9</ele>
        <time>2024-10-17T21:13:58.910Z</time>
      </trkpt>
      <trkpt lat="46.86256" lon="-1.00786">
        <ele>119.2</ele>
        <time>2024-10-17T21:13:58.910Z</time>
      </trkpt>
      <trkpt lat="46.86257" lon="-1.00807">
        <ele>119.3</ele>
        <time>2024-10-17T21:13:58.910Z</time>
      </trkpt>
      <trkpt lat="46.86256" lon="-1.00824">
        <ele>119.7</ele>
        <time>2024-10-17T21:13:58.910Z</time>
      </trkpt>
      <trkpt lat="46.86252" lon="-1.0085">
        <ele>120</ele>
        <time>2024-10-17T21:13:58.910Z</time>
      </trkpt>
      <trkpt lat="46.86249" lon="-1.00861">
        <ele>119.9</ele>
        <time>2024-10-17T21:13:58.910Z</time>
      </trkpt>
      <trkpt lat="46.86248" lon="-1.00863">
        <ele>119.8</ele>
        <time>2024-10-17T21:13:58.910Z</time>
      </trkpt>
      <trkpt lat="46.86239" lon="-1.00889">
        <ele>118.6</ele>
        <time>2024-10-17T21:13:58.910Z</time>
      </trkpt>
      <trkpt lat="46.86217" lon="-1.00945">
        <ele>117.8</ele>
        <time>2024-10-17T21:13:58.910Z</time>
      </trkpt>
      <trkpt lat="46.86207" lon="-1.00973">
        <ele>117.5</ele>
        <time>2024-10-17T21:13:58.910Z</time>
      </trkpt>
      <trkpt lat="46.86195" lon="-1.01007">
        <ele>117</ele>
        <time>2024-10-17T21:13:58.910Z</time>
      </trkpt>
      <trkpt lat="46.86177" lon="-1.01057">
        <ele>116.4</ele>
        <time>2024-10-17T21:13:58.910Z</time>
      </trkpt>
      <trkpt lat="46.86156" lon="-1.01111">
        <ele>115.6</ele>
        <time>2024-10-17T21:13:58.910Z</time>
      </trkpt>
      <trkpt lat="46.8618" lon="-1.01132">
        <ele>116</ele>
        <time>2024-10-17T21:13:58.910Z</time>
      </trkpt>
      <trkpt lat="46.86184" lon="-1.01141">
        <ele>115.9</ele>
        <time>2024-10-17T21:13:58.910Z</time>
      </trkpt>
      <trkpt lat="46.86229" lon="-1.01169">
        <ele>115</ele>
        <time>2024-10-17T21:13:58.910Z</time>
      </trkpt>
      <trkpt lat="46.86299" lon="-1.0122">
        <ele>117.5</ele>
        <time>2024-10-17T21:13:58.910Z</time>
      </trkpt>
      <trkpt lat="46.86305" lon="-1.01223">
        <ele>118</ele>
        <time>2024-10-17T21:13:58.910Z</time>
      </trkpt>
      <trkpt lat="46.86326" lon="-1.01236">
        <ele>118</ele>
        <time>2024-10-17T21:13:58.910Z</time>
      </trkpt>
      <trkpt lat="46.8633" lon="-1.01226">
        <ele>118</ele>
        <time>2024-10-17T21:13:58.910Z</time>
      </trkpt>
      <trkpt lat="46.86336" lon="-1.01224">
        <ele>118</ele>
        <time>2024-10-17T21:13:58.910Z</time>
      </trkpt>
      <trkpt lat="46.8634" lon="-1.01225">
        <ele>118</ele>
        <time>2024-10-17T21:13:58.910Z</time>
      </trkpt>
      <trkpt lat="46.86344" lon="-1.01231">
        <ele>118</ele>
        <time>2024-10-17T21:13:58.910Z</time>
      </trkpt>
      <trkpt lat="46.86345" lon="-1.0124">
        <ele>118</ele>
        <time>2024-10-17T21:13:58.910Z</time>
      </trkpt>
      <trkpt lat="46.86342" lon="-1.01249">
        <ele>118</ele>
        <time>2024-10-17T21:13:58.910Z</time>
      </trkpt>
      <trkpt lat="46.86336" lon="-1.01252">
        <ele>117.9</ele>
        <time>2024-10-17T21:13:58.910Z</time>
      </trkpt>
      <trkpt lat="46.8633" lon="-1.01249">
        <ele>118</ele>
        <time>2024-10-17T21:13:58.910Z</time>
      </trkpt>
      <trkpt lat="46.86324" lon="-1.01263">
        <ele>117.5</ele>
        <time>2024-10-17T21:13:58.910Z</time>
      </trkpt>
      <trkpt lat="46.8631" lon="-1.01379">
        <ele>116.7</ele>
        <time>2024-10-17T21:13:58.910Z</time>
        <extensions>
          <visugpx:TrkExtension xmlns:visugpx="https://www.visugpx.com/editgpx/">
            <visugpx:node>1</visugpx:node>
            </visugpx:TrkExtension>
        </extensions>
      </trkpt>
      <trkpt lat="46.86307" lon="-1.01407">
        <ele>117</ele>
        <time>2024-10-17T21:13:58.910Z</time>
      </trkpt>
      <trkpt lat="46.86307" lon="-1.01408">
        <ele>117</ele>
        <time>2024-10-17T21:13:58.910Z</time>
        <extensions>
          <visugpx:TrkExtension xmlns:visugpx="https://www.visugpx.com/editgpx/">
            <visugpx:node>2</visugpx:node>
            </visugpx:TrkExtension>
        </extensions>
      </trkpt>
      <trkpt lat="46.86307" lon="-1.01408">
        <ele>117</ele>
        <time>2024-10-17T21:13:58.910Z</time>
      </trkpt>
      <trkpt lat="46.86291" lon="-1.01506">
        <ele>116.5</ele>
        <time>2024-10-17T21:14:07.663Z</time>
      </trkpt>
      <trkpt lat="46.86284" lon="-1.01574">
        <ele>116.2</ele>
        <time>2024-10-17T21:14:13.063Z</time>
      </trkpt>
      <trkpt lat="46.86291" lon="-1.0158">
        <ele>116.5</ele>
        <time>2024-10-17T21:14:18.579Z</time>
      </trkpt>
      <trkpt lat="46.86292" lon="-1.01591">
        <ele>116.6</ele>
        <time>2024-10-17T21:14:19.818Z</time>
      </trkpt>
      <trkpt lat="46.86294" lon="-1.0159">
        <ele>116.7</ele>
        <time>2024-10-17T21:14:20.163Z</time>
      </trkpt>
      <trkpt lat="46.86285" lon="-1.01617">
        <ele>116.9</ele>
        <time>2024-10-17T21:14:23.518Z</time>
      </trkpt>
      <trkpt lat="46.86272" lon="-1.01615">
        <ele>116.5</ele>
        <time>2024-10-17T21:14:25.653Z</time>
      </trkpt>
      <trkpt lat="46.86266" lon="-1.01609">
        <ele>116.1</ele>
        <time>2024-10-17T21:14:26.840Z</time>
      </trkpt>
      <trkpt lat="46.86182" lon="-1.01723">
        <ele>114.6</ele>
        <time>2024-10-17T21:14:49.150Z</time>
      </trkpt>
      <trkpt lat="46.86174" lon="-1.01819">
        <ele>114.6</ele>
        <time>2024-10-17T21:14:58.569Z</time>
      </trkpt>
      <trkpt lat="46.86159" lon="-1.01843">
        <ele>114</ele>
        <time>2024-10-17T21:15:02.200Z</time>
      </trkpt>
      <trkpt lat="46.86103" lon="-1.01916">
        <ele>114</ele>
        <time>2024-10-17T21:15:13.052Z</time>
      </trkpt>
      <trkpt lat="46.86099" lon="-1.01927">
        <ele>114</ele>
        <time>2024-10-17T21:15:18.634Z</time>
      </trkpt>
      <trkpt lat="46.86093" lon="-1.01946">
        <ele>114</ele>
        <time>2024-10-17T21:15:20.971Z</time>
      </trkpt>
      <trkpt lat="46.86103" lon="-1.01978">
        <ele>113.6</ele>
        <time>2024-10-17T21:15:24.900Z</time>
      </trkpt>
      <trkpt lat="46.86141" lon="-1.02058">
        <ele>113</ele>
        <time>2024-10-17T21:15:33.298Z</time>
      </trkpt>
      <trkpt lat="46.86183" lon="-1.02145">
        <ele>112.9</ele>
        <time>2024-10-17T21:15:46.931Z</time>
      </trkpt>
      <trkpt lat="46.86199" lon="-1.02173">
        <ele>112</ele>
        <time>2024-10-17T21:15:51.006Z</time>
      </trkpt>
      <trkpt lat="46.86202" lon="-1.0219">
        <ele>112</ele>
        <time>2024-10-17T21:15:52.967Z</time>
      </trkpt>
      <trkpt lat="46.86217" lon="-1.02213">
        <ele>112</ele>
        <time>2024-10-17T21:15:56.517Z</time>
      </trkpt>
      <trkpt lat="46.86221" lon="-1.02225">
        <ele>112</ele>
        <time>2024-10-17T21:15:57.411Z</time>
      </trkpt>
      <trkpt lat="46.86238" lon="-1.02245">
        <ele>112.1</ele>
        <time>2024-10-17T21:16:00.975Z</time>
      </trkpt>
      <trkpt lat="46.86267" lon="-1.02268">
        <ele>111.4</ele>
        <time>2024-10-17T21:16:08.379Z</time>
      </trkpt>
      <trkpt lat="46.86299" lon="-1.0229">
        <ele>111.1</ele>
        <time>2024-10-17T21:16:14.154Z</time>
      </trkpt>
      <trkpt lat="46.86386" lon="-1.02324">
        <ele>109.1</ele>
        <time>2024-10-17T21:16:25.224Z</time>
      </trkpt>
      <trkpt lat="46.86402" lon="-1.02333">
        <ele>108.5</ele>
        <time>2024-10-17T21:16:28.023Z</time>
      </trkpt>
      <trkpt lat="46.86444" lon="-1.02363">
        <ele>107</ele>
        <time>2024-10-17T21:16:33.382Z</time>
      </trkpt>
      <trkpt lat="46.86454" lon="-1.02379">
        <ele>107</ele>
        <time>2024-10-17T21:16:34.834Z</time>
      </trkpt>
      <trkpt lat="46.86461" lon="-1.02386">
        <ele>107</ele>
        <time>2024-10-17T21:16:36.219Z</time>
      </trkpt>
      <trkpt lat="46.86476" lon="-1.02386">
        <ele>106.8</ele>
        <time>2024-10-17T21:16:37.690Z</time>
      </trkpt>
      <trkpt lat="46.86515" lon="-1.02421">
        <ele>106.5</ele>
        <time>2024-10-17T21:16:45.163Z</time>
      </trkpt>
      <trkpt lat="46.86644" lon="-1.02584">
        <ele>102.8</ele>
        <time>2024-10-17T21:17:08.937Z</time>
      </trkpt>
      <trkpt lat="46.86651" lon="-1.02596">
        <ele>102.1</ele>
        <time>2024-10-17T21:17:10.699Z</time>
      </trkpt>
      <trkpt lat="46.86656" lon="-1.02615">
        <ele>101.4</ele>
        <time>2024-10-17T21:17:12.972Z</time>
      </trkpt>
      <trkpt lat="46.86657" lon="-1.02628">
        <ele>101.3</ele>
        <time>2024-10-17T21:17:14.433Z</time>
      </trkpt>
      <trkpt lat="46.86656" lon="-1.0266">
        <ele>101.4</ele>
        <time>2024-10-17T21:17:16.893Z</time>
      </trkpt>
      <trkpt lat="46.86668" lon="-1.02685">
        <ele>101</ele>
        <time>2024-10-17T21:17:19.204Z</time>
      </trkpt>
      <trkpt lat="46.86674" lon="-1.02687">
        <ele>100.7</ele>
        <time>2024-10-17T21:17:20.209Z</time>
      </trkpt>
      <trkpt lat="46.86692" lon="-1.02685">
        <ele>100.1</ele>
        <time>2024-10-17T21:17:23.157Z</time>
      </trkpt>
      <trkpt lat="46.86707" lon="-1.0267">
        <ele>99.5</ele>
        <time>2024-10-17T21:17:25.073Z</time>
      </trkpt>
      <trkpt lat="46.86721" lon="-1.02659">
        <ele>99.3</ele>
        <time>2024-10-17T21:17:27.669Z</time>
      </trkpt>
      <trkpt lat="46.86745" lon="-1.02653">
        <ele>98.7</ele>
        <time>2024-10-17T21:17:31.646Z</time>
      </trkpt>
      <trkpt lat="46.86791" lon="-1.02656">
        <ele>97.2</ele>
        <time>2024-10-17T21:17:36.900Z</time>
      </trkpt>
      <trkpt lat="46.86821" lon="-1.0266">
        <ele>96.4</ele>
        <time>2024-10-17T21:17:40.607Z</time>
      </trkpt>
      <trkpt lat="46.86854" lon="-1.02679">
        <ele>95.7</ele>
        <time>2024-10-17T21:17:45.142Z</time>
      </trkpt>
      <trkpt lat="46.86927" lon="-1.02742">
        <ele>95.9</ele>
        <time>2024-10-17T21:17:57.569Z</time>
      </trkpt>
      <trkpt lat="46.86956" lon="-1.02764">
        <ele>95</ele>
        <time>2024-10-17T21:18:04.926Z</time>
      </trkpt>
      <trkpt lat="46.86979" lon="-1.02775">
        <ele>95</ele>
        <time>2024-10-17T21:18:07.730Z</time>
      </trkpt>
      <trkpt lat="46.8701" lon="-1.02776">
        <ele>95</ele>
        <time>2024-10-17T21:18:10.809Z</time>
      </trkpt>
      <trkpt lat="46.87044" lon="-1.02768">
        <ele>94.6</ele>
        <time>2024-10-17T21:18:16.434Z</time>
      </trkpt>
      <trkpt lat="46.87125" lon="-1.02734">
        <ele>96.6</ele>
        <time>2024-10-17T21:18:39.686Z</time>
      </trkpt>
      <trkpt lat="46.87124" lon="-1.02721">
        <ele>97</ele>
        <time>2024-10-17T21:18:45.281Z</time>
      </trkpt>
      <trkpt lat="46.87133" lon="-1.02719">
        <ele>97.1</ele>
        <time>2024-10-17T21:18:46.768Z</time>
      </trkpt>
      <trkpt lat="46.87134" lon="-1.02709">
        <ele>97.4</ele>
        <time>2024-10-17T21:18:47.896Z</time>
      </trkpt>
      <trkpt lat="46.87137" lon="-1.02698">
        <ele>97.8</ele>
        <time>2024-10-17T21:18:49.219Z</time>
      </trkpt>
      <trkpt lat="46.87144" lon="-1.02688">
        <ele>98.2</ele>
        <time>2024-10-17T21:18:54.755Z</time>
      </trkpt>
      <trkpt lat="46.87152" lon="-1.02683">
        <ele>98.5</ele>
        <time>2024-10-17T21:18:56.176Z</time>
      </trkpt>
      <trkpt lat="46.8716" lon="-1.02683">
        <ele>98.8</ele>
        <time>2024-10-17T21:18:56.960Z</time>
      </trkpt>
      <trkpt lat="46.87169" lon="-1.02689">
        <ele>99</ele>
        <time>2024-10-17T21:18:58.576Z</time>
      </trkpt>
      <trkpt lat="46.87175" lon="-1.02698">
        <ele>98.9</ele>
        <time>2024-10-17T21:18:59.418Z</time>
      </trkpt>
      <trkpt lat="46.87178" lon="-1.0271">
        <ele>98.4</ele>
        <time>2024-10-17T21:19:00.845Z</time>
      </trkpt>
      <trkpt lat="46.87178" lon="-1.02722">
        <ele>98</ele>
        <time>2024-10-17T21:19:02.185Z</time>
      </trkpt>
      <trkpt lat="46.87175" lon="-1.02732">
        <ele>97.8</ele>
        <time>2024-10-17T21:19:02.916Z</time>
      </trkpt>
      <trkpt lat="46.87187" lon="-1.02743">
        <ele>97.8</ele>
        <time>2024-10-17T21:19:05.229Z</time>
      </trkpt>
      <trkpt lat="46.8719" lon="-1.02728">
        <ele>98</ele>
        <time>2024-10-17T21:19:06.974Z</time>
      </trkpt>
      <trkpt lat="46.87189" lon="-1.02713">
        <ele>98.3</ele>
        <time>2024-10-17T21:19:12.457Z</time>
      </trkpt>
      <trkpt lat="46.8719" lon="-1.02702">
        <ele>98.7</ele>
        <time>2024-10-17T21:19:13.696Z</time>
      </trkpt>
      <trkpt lat="46.87197" lon="-1.02694">
        <ele>99.1</ele>
        <time>2024-10-17T21:19:19.292Z</time>
      </trkpt>
      <trkpt lat="46.87271" lon="-1.02635">
        <ele>102.9</ele>
        <time>2024-10-17T21:19:46.397Z</time>
      </trkpt>
      <trkpt lat="46.87465" lon="-1.02496">
        <ele>104.8</ele>
        <time>2024-10-17T21:20:25.030Z</time>
      </trkpt>
      <trkpt lat="46.87476" lon="-1.02492">
        <ele>105</ele>
        <time>2024-10-17T21:20:30.415Z</time>
      </trkpt>
      <trkpt lat="46.87482" lon="-1.02493">
        <ele>105.1</ele>
        <time>2024-10-17T21:20:31.402Z</time>
      </trkpt>
      <trkpt lat="46.87487" lon="-1.02497">
        <ele>105.1</ele>
        <time>2024-10-17T21:20:32.332Z</time>
      </trkpt>
      <trkpt lat="46.87493" lon="-1.02505">
        <ele>105</ele>
        <time>2024-10-17T21:20:33.658Z</time>
      </trkpt>
      <trkpt lat="46.87502" lon="-1.02513">
        <ele>105</ele>
        <time>2024-10-17T21:20:35.378Z</time>
      </trkpt>
      <trkpt lat="46.87508" lon="-1.02515">
        <ele>105.1</ele>
        <time>2024-10-17T21:20:36.384Z</time>
      </trkpt>
      <trkpt lat="46.87524" lon="-1.02509">
        <ele>105.6</ele>
        <time>2024-10-17T21:20:39.081Z</time>
      </trkpt>
      <trkpt lat="46.87528" lon="-1.02505">
        <ele>105.8</ele>
        <time>2024-10-17T21:20:39.873Z</time>
      </trkpt>
      <trkpt lat="46.87533" lon="-1.02494">
        <ele>106</ele>
        <time>2024-10-17T21:20:41.348Z</time>
      </trkpt>
      <trkpt lat="46.87539" lon="-1.02486">
        <ele>106</ele>
        <time>2024-10-17T21:20:42.674Z</time>
      </trkpt>
      <trkpt lat="46.87562" lon="-1.02578">
        <ele>105.2</ele>
        <time>2024-10-17T21:20:52.227Z</time>
      </trkpt>
      <trkpt lat="46.87569" lon="-1.02595">
        <ele>105.1</ele>
        <time>2024-10-17T21:20:54.443Z</time>
      </trkpt>
      <trkpt lat="46.8758" lon="-1.02621">
        <ele>105.6</ele>
        <time>2024-10-17T21:20:57.857Z</time>
      </trkpt>
      <trkpt lat="46.87596" lon="-1.02648">
        <ele>106.4</ele>
        <time>2024-10-17T21:21:01.846Z</time>
      </trkpt>
      <trkpt lat="46.87602" lon="-1.02653">
        <ele>106.7</ele>
        <time>2024-10-17T21:21:06.680Z</time>
      </trkpt>
      <trkpt lat="46.87618" lon="-1.02658">
        <ele>108.1</ele>
        <time>2024-10-17T21:21:17.742Z</time>
      </trkpt>
      <trkpt lat="46.87609" lon="-1.0267">
        <ele>106.8</ele>
        <time>2024-10-17T21:21:18.936Z</time>
      </trkpt>
      <trkpt lat="46.8761" lon="-1.02674">
        <ele>106.9</ele>
        <time>2024-10-17T21:21:20.974Z</time>
      </trkpt>
      <trkpt lat="46.8761" lon="-1.02681">
        <ele>106.9</ele>
        <time>2024-10-17T21:21:21.755Z</time>
      </trkpt>
      <trkpt lat="46.87608" lon="-1.02685">
        <ele>106.7</ele>
        <time>2024-10-17T21:21:22.308Z</time>
      </trkpt>
      <trkpt lat="46.87636" lon="-1.02742">
        <ele>109.2</ele>
        <time>2024-10-17T21:21:34.631Z</time>
      </trkpt>
      <trkpt lat="46.87679" lon="-1.02815">
        <ele>112.2</ele>
        <time>2024-10-17T21:21:52.374Z</time>
      </trkpt>
      <trkpt lat="46.87703" lon="-1.02845">
        <ele>113.4</ele>
        <time>2024-10-17T21:21:59.571Z</time>
      </trkpt>
      <trkpt lat="46.87749" lon="-1.02889">
        <ele>116</ele>
        <time>2024-10-17T21:22:10.356Z</time>
      </trkpt>
      <trkpt lat="46.87761" lon="-1.02905">
        <ele>116.5</ele>
        <time>2024-10-17T21:22:15.737Z</time>
      </trkpt>
      <trkpt lat="46.87899" lon="-1.03145">
        <ele>112.9</ele>
        <time>2024-10-17T21:22:46.571Z</time>
      </trkpt>
      <trkpt lat="46.88008" lon="-1.03302">
        <ele>109.3</ele>
        <time>2024-10-17T21:23:06.455Z</time>
      </trkpt>
      <trkpt lat="46.88013" lon="-1.03295">
        <ele>109.5</ele>
        <time>2024-10-17T21:23:07.585Z</time>
      </trkpt>
      <trkpt lat="46.8802" lon="-1.0329">
        <ele>109.5</ele>
        <time>2024-10-17T21:23:08.857Z</time>
      </trkpt>
      <trkpt lat="46.88027" lon="-1.03288">
        <ele>109.4</ele>
        <time>2024-10-17T21:23:10.022Z</time>
      </trkpt>
      <trkpt lat="46.88034" lon="-1.03288">
        <ele>109.3</ele>
        <time>2024-10-17T21:23:14.922Z</time>
      </trkpt>
      <trkpt lat="46.88041" lon="-1.03292">
        <ele>109.3</ele>
        <time>2024-10-17T21:23:16.149Z</time>
      </trkpt>
      <trkpt lat="46.88047" lon="-1.03298">
        <ele>109.2</ele>
        <time>2024-10-17T21:23:17.336Z</time>
      </trkpt>
      <trkpt lat="46.88052" lon="-1.03307">
        <ele>109.1</ele>
        <time>2024-10-17T21:23:18.113Z</time>
      </trkpt>
      <trkpt lat="46.88056" lon="-1.03319">
        <ele>109</ele>
        <time>2024-10-17T21:23:19.604Z</time>
      </trkpt>
      <trkpt lat="46.88056" lon="-1.03332">
        <ele>109</ele>
        <time>2024-10-17T21:23:21.055Z</time>
      </trkpt>
      <trkpt lat="46.88053" lon="-1.03345">
        <ele>109.1</ele>
        <time>2024-10-17T21:23:21.974Z</time>
      </trkpt>
      <trkpt lat="46.88048" lon="-1.03356">
        <ele>109.1</ele>
        <time>2024-10-17T21:23:23.449Z</time>
      </trkpt>
      <trkpt lat="46.88056" lon="-1.03366">
        <ele>109</ele>
        <time>2024-10-17T21:23:24.480Z</time>
      </trkpt>
      <trkpt lat="46.88087" lon="-1.03391">
        <ele>109</ele>
        <time>2024-10-17T21:23:30.262Z</time>
      </trkpt>
      <trkpt lat="46.88185" lon="-1.03463">
        <ele>108.2</ele>
        <time>2024-10-17T21:23:49.846Z</time>
      </trkpt>
      <trkpt lat="46.88244" lon="-1.03509">
        <ele>107.2</ele>
        <time>2024-10-17T21:23:59.382Z</time>
      </trkpt>
      <trkpt lat="46.887" lon="-1.03974">
        <ele>106.9</ele>
        <time>2024-10-17T21:25:27.147Z</time>
      </trkpt>
      <trkpt lat="46.88715" lon="-1.03984">
        <ele>107</ele>
        <time>2024-10-17T21:25:29.839Z</time>
      </trkpt>
      <trkpt lat="46.88719" lon="-1.03976">
        <ele>107.1</ele>
        <time>2024-10-17T21:25:30.946Z</time>
      </trkpt>
      <trkpt lat="46.88724" lon="-1.03971">
        <ele>106.9</ele>
        <time>2024-10-17T21:25:35.185Z</time>
      </trkpt>
      <trkpt lat="46.88737" lon="-1.03968">
        <ele>106.9</ele>
        <time>2024-10-17T21:25:37.335Z</time>
      </trkpt>
      <trkpt lat="46.88743" lon="-1.03978">
        <ele>107.1</ele>
        <time>2024-10-17T21:25:38.820Z</time>
      </trkpt>
      <trkpt lat="46.88746" lon="-1.03985">
        <ele>107.1</ele>
        <time>2024-10-17T21:25:42.773Z</time>
      </trkpt>
      <trkpt lat="46.88748" lon="-1.03996">
        <ele>107.1</ele>
        <time>2024-10-17T21:25:44.043Z</time>
      </trkpt>
      <trkpt lat="46.88746" lon="-1.04004">
        <ele>107.1</ele>
        <time>2024-10-17T21:25:44.994Z</time>
      </trkpt>
      <trkpt lat="46.88742" lon="-1.04013">
        <ele>107.2</ele>
        <time>2024-10-17T21:25:46.193Z</time>
      </trkpt>
      <trkpt lat="46.88737" lon="-1.04018">
        <ele>107.2</ele>
        <time>2024-10-17T21:25:46.786Z</time>
      </trkpt>
      <trkpt lat="46.88926" lon="-1.04603">
        <ele>104.5</ele>
        <time>2024-10-17T21:26:56.018Z</time>
      </trkpt>
      <trkpt lat="46.88942" lon="-1.04648">
        <ele>104.9</ele>
        <time>2024-10-17T21:26:59.611Z</time>
      </trkpt>
      <trkpt lat="46.88957" lon="-1.04684">
        <ele>104.4</ele>
        <time>2024-10-17T21:27:06.417Z</time>
      </trkpt>
      <trkpt lat="46.88985" lon="-1.04729">
        <ele>104</ele>
        <time>2024-10-17T21:27:13.210Z</time>
      </trkpt>
      <trkpt lat="46.89137" lon="-1.04945">
        <ele>104</ele>
        <time>2024-10-17T21:27:47.817Z</time>
      </trkpt>
      <trkpt lat="46.89164" lon="-1.0499">
        <ele>104.6</ele>
        <time>2024-10-17T21:27:56.411Z</time>
      </trkpt>
      <trkpt lat="46.8932" lon="-1.05334">
        <ele>103.5</ele>
        <time>2024-10-17T21:28:40.982Z</time>
      </trkpt>
      <trkpt lat="46.89332" lon="-1.05366">
        <ele>104</ele>
        <time>2024-10-17T21:28:45.056Z</time>
      </trkpt>
      <trkpt lat="46.89469" lon="-1.05764">
        <ele>101.4</ele>
        <time>2024-10-17T21:29:31.846Z</time>
      </trkpt>
      <trkpt lat="46.89678" lon="-1.06363">
        <ele>92.5</ele>
        <time>2024-10-17T21:30:36.043Z</time>
      </trkpt>
      <trkpt lat="46.89697" lon="-1.06412">
        <ele>90.1</ele>
        <time>2024-10-17T21:30:40.186Z</time>
      </trkpt>
      <trkpt lat="46.89723" lon="-1.06466">
        <ele>89.8</ele>
        <time>2024-10-17T21:30:46.247Z</time>
      </trkpt>
      <trkpt lat="46.89761" lon="-1.06528">
        <ele>90.6</ele>
        <time>2024-10-17T21:30:55.542Z</time>
      </trkpt>
      <trkpt lat="46.89909" lon="-1.06758">
        <ele>95</ele>
        <time>2024-10-17T21:31:40.247Z</time>
      </trkpt>
      <trkpt lat="46.89953" lon="-1.06822">
        <ele>96.2</ele>
        <time>2024-10-17T21:31:50.379Z</time>
      </trkpt>
      <trkpt lat="46.90021" lon="-1.06909">
        <ele>98</ele>
        <time>2024-10-17T21:32:06.832Z</time>
      </trkpt>
      <trkpt lat="46.90118" lon="-1.07026">
        <ele>100.2</ele>
        <time>2024-10-17T21:32:38.375Z</time>
      </trkpt>
      <trkpt lat="46.9015" lon="-1.07074">
        <ele>101</ele>
        <time>2024-10-17T21:32:45.859Z</time>
      </trkpt>
      <trkpt lat="46.90168" lon="-1.07116">
        <ele>102</ele>
        <time>2024-10-17T21:32:53.392Z</time>
      </trkpt>
      <trkpt lat="46.90184" lon="-1.07168">
        <ele>102</ele>
        <time>2024-10-17T21:32:59.757Z</time>
      </trkpt>
      <trkpt lat="46.90206" lon="-1.07263">
        <ele>102.2</ele>
        <time>2024-10-17T21:33:09.563Z</time>
      </trkpt>
      <trkpt lat="46.90213" lon="-1.0726">
        <ele>102.2</ele>
        <time>2024-10-17T21:33:10.755Z</time>
      </trkpt>
      <trkpt lat="46.90221" lon="-1.07261">
        <ele>102.4</ele>
        <time>2024-10-17T21:33:12.066Z</time>
      </trkpt>
      <trkpt lat="46.90228" lon="-1.07264">
        <ele>102.4</ele>
        <time>2024-10-17T21:33:17.172Z</time>
      </trkpt>
      <trkpt lat="46.90235" lon="-1.07271">
        <ele>102.4</ele>
        <time>2024-10-17T21:33:18.556Z</time>
      </trkpt>
      <trkpt lat="46.9024" lon="-1.0728">
        <ele>102.4</ele>
        <time>2024-10-17T21:33:19.851Z</time>
      </trkpt>
      <trkpt lat="46.90243" lon="-1.07291">
        <ele>102.4</ele>
        <time>2024-10-17T21:33:21.173Z</time>
      </trkpt>
      <trkpt lat="46.90243" lon="-1.07302">
        <ele>102.5</ele>
        <time>2024-10-17T21:33:22.400Z</time>
      </trkpt>
      <trkpt lat="46.9024" lon="-1.07318">
        <ele>102.4</ele>
        <time>2024-10-17T21:33:24.252Z</time>
      </trkpt>
      <trkpt lat="46.90234" lon="-1.0733">
        <ele>102.1</ele>
        <time>2024-10-17T21:33:25.911Z</time>
      </trkpt>
      <trkpt lat="46.90224" lon="-1.07338">
        <ele>102</ele>
        <time>2024-10-17T21:33:27.028Z</time>
      </trkpt>
      <trkpt lat="46.9024" lon="-1.07392">
        <ele>101.3</ele>
        <time>2024-10-17T21:33:33.596Z</time>
      </trkpt>
      <trkpt lat="46.90272" lon="-1.07554">
        <ele>99.3</ele>
        <time>2024-10-17T21:33:48.587Z</time>
      </trkpt>
      <trkpt lat="46.90308" lon="-1.07762">
        <ele>96.9</ele>
        <time>2024-10-17T21:34:08.546Z</time>
      </trkpt>
      <trkpt lat="46.90343" lon="-1.07962">
        <ele>94.2</ele>
        <time>2024-10-17T21:34:28.803Z</time>
      </trkpt>
      <trkpt lat="46.90374" lon="-1.08216">
        <ele>94</ele>
        <time>2024-10-17T21:34:59.222Z</time>
      </trkpt>
      <trkpt lat="46.90381" lon="-1.08378">
        <ele>92.3</ele>
        <time>2024-10-17T21:35:15.889Z</time>
      </trkpt>
      <trkpt lat="46.90393" lon="-1.08793">
        <ele>90.7</ele>
        <time>2024-10-17T21:35:59.303Z</time>
      </trkpt>
      <trkpt lat="46.90404" lon="-1.09094">
        <ele>88.5</ele>
        <time>2024-10-17T21:36:28.777Z</time>
      </trkpt>
      <trkpt lat="46.90406" lon="-1.09305">
        <ele>88</ele>
        <time>2024-10-17T21:36:52.325Z</time>
      </trkpt>
      <trkpt lat="46.90408" lon="-1.09323">
        <ele>87.8</ele>
        <time>2024-10-17T21:36:54.360Z</time>
      </trkpt>
      <trkpt lat="46.90414" lon="-1.09323">
        <ele>87.9</ele>
        <time>2024-10-17T21:36:55.340Z</time>
      </trkpt>
      <trkpt lat="46.90421" lon="-1.09328">
        <ele>88</ele>
        <time>2024-10-17T21:37:00.746Z</time>
      </trkpt>
      <trkpt lat="46.90425" lon="-1.09335">
        <ele>88</ele>
        <time>2024-10-17T21:37:01.357Z</time>
      </trkpt>
      <trkpt lat="46.90427" lon="-1.09344">
        <ele>88</ele>
        <time>2024-10-17T21:37:02.413Z</time>
      </trkpt>
      <trkpt lat="46.90425" lon="-1.09355">
        <ele>88</ele>
        <time>2024-10-17T21:37:03.683Z</time>
      </trkpt>
      <trkpt lat="46.90421" lon="-1.09363">
        <ele>88</ele>
        <time>2024-10-17T21:37:04.789Z</time>
      </trkpt>
      <trkpt lat="46.90412" lon="-1.09368">
        <ele>88</ele>
        <time>2024-10-17T21:37:06.361Z</time>
      </trkpt>
      <trkpt lat="46.90414" lon="-1.09524">
        <ele>87</ele>
        <time>2024-10-17T21:37:22.330Z</time>
      </trkpt>
      <trkpt lat="46.9042" lon="-1.09604">
        <ele>86.8</ele>
        <time>2024-10-17T21:37:28.935Z</time>
      </trkpt>
      <trkpt lat="46.90427" lon="-1.09668">
        <ele>85.2</ele>
        <time>2024-10-17T21:37:36.168Z</time>
      </trkpt>
      <trkpt lat="46.90437" lon="-1.09724">
        <ele>85.2</ele>
        <time>2024-10-17T21:37:41.344Z</time>
      </trkpt>
      <trkpt lat="46.90441" lon="-1.09739">
        <ele>85.6</ele>
        <time>2024-10-17T21:37:43.141Z</time>
      </trkpt>
      <trkpt lat="46.90475" lon="-1.09829">
        <ele>87.2</ele>
        <time>2024-10-17T21:38:01.411Z</time>
      </trkpt>
      <trkpt lat="46.90507" lon="-1.09883">
        <ele>87.5</ele>
        <time>2024-10-17T21:38:09.388Z</time>
      </trkpt>
      <trkpt lat="46.90549" lon="-1.09939">
        <ele>88.4</ele>
        <time>2024-10-17T21:38:18.668Z</time>
      </trkpt>
      <trkpt lat="46.90588" lon="-1.09979">
        <ele>88.7</ele>
        <time>2024-10-17T21:38:28.299Z</time>
      </trkpt>
      <trkpt lat="46.90628" lon="-1.1001">
        <ele>89</ele>
        <time>2024-10-17T21:38:37.563Z</time>
      </trkpt>
      <trkpt lat="46.9067" lon="-1.10032">
        <ele>89.3</ele>
        <time>2024-10-17T21:38:46.725Z</time>
      </trkpt>
      <trkpt lat="46.90677" lon="-1.10036">
        <ele>89.6</ele>
        <time>2024-10-17T21:38:47.953Z</time>
      </trkpt>
      <trkpt lat="46.90716" lon="-1.10046">
        <ele>90.5</ele>
        <time>2024-10-17T21:38:54.420Z</time>
      </trkpt>
      <trkpt lat="46.9083" lon="-1.10064">
        <ele>94</ele>
        <time>2024-10-17T21:39:24.571Z</time>
      </trkpt>
      <trkpt lat="46.90858" lon="-1.10062">
        <ele>94.9</ele>
        <time>2024-10-17T21:39:29.150Z</time>
      </trkpt>
      <trkpt lat="46.90862" lon="-1.10051">
        <ele>94.8</ele>
        <time>2024-10-17T21:39:29.984Z</time>
      </trkpt>
      <trkpt lat="46.90871" lon="-1.10044">
        <ele>94.7</ele>
        <time>2024-10-17T21:39:31.649Z</time>
      </trkpt>
      <trkpt lat="46.90875" lon="-1.10044">
        <ele>94.8</ele>
        <time>2024-10-17T21:39:32.302Z</time>
      </trkpt>
      <trkpt lat="46.9088" lon="-1.10047">
        <ele>94.9</ele>
        <time>2024-10-17T21:39:33.185Z</time>
      </trkpt>
      <trkpt lat="46.90885" lon="-1.10054">
        <ele>95</ele>
        <time>2024-10-17T21:39:34.315Z</time>
      </trkpt>
      <trkpt lat="46.90887" lon="-1.10061">
        <ele>95</ele>
        <time>2024-10-17T21:39:35.162Z</time>
      </trkpt>
      <trkpt lat="46.90887" lon="-1.10072">
        <ele>95</ele>
        <time>2024-10-17T21:39:36.389Z</time>
      </trkpt>
      <trkpt lat="46.90885" lon="-1.10078">
        <ele>95</ele>
        <time>2024-10-17T21:39:37.134Z</time>
      </trkpt>
      <trkpt lat="46.90879" lon="-1.10085">
        <ele>95.1</ele>
        <time>2024-10-17T21:39:38.387Z</time>
      </trkpt>
      <trkpt lat="46.9087" lon="-1.10087">
        <ele>95.1</ele>
        <time>2024-10-17T21:39:39.874Z</time>
      </trkpt>
      <trkpt lat="46.90852" lon="-1.10252">
        <ele>97.7</ele>
        <time>2024-10-17T21:40:04.347Z</time>
      </trkpt>
      <trkpt lat="46.9079" lon="-1.1076">
        <ele>95.4</ele>
        <time>2024-10-17T21:40:56.242Z</time>
      </trkpt>
      <trkpt lat="46.90741" lon="-1.11242">
        <ele>90.7</ele>
        <time>2024-10-17T21:41:44.960Z</time>
      </trkpt>
      <trkpt lat="46.90645" lon="-1.12609">
        <ele>84.7</ele>
        <time>2024-10-17T21:44:10.856Z</time>
      </trkpt>
      <trkpt lat="46.90614" lon="-1.13003">
        <ele>78.9</ele>
        <time>2024-10-17T21:44:48.372Z</time>
      </trkpt>
      <trkpt lat="46.90614" lon="-1.13036">
        <ele>77.8</ele>
        <time>2024-10-17T21:44:50.928Z</time>
      </trkpt>
      <trkpt lat="46.90614" lon="-1.13047">
        <ele>77.8</ele>
        <time>2024-10-17T21:44:52.156Z</time>
      </trkpt>
      <trkpt lat="46.90618" lon="-1.13064">
        <ele>76.6</ele>
        <time>2024-10-17T21:44:53.359Z</time>
      </trkpt>
      <trkpt lat="46.90631" lon="-1.13102">
        <ele>76.2</ele>
        <time>2024-10-17T21:45:00.196Z</time>
      </trkpt>
      <trkpt lat="46.90666" lon="-1.13166">
        <ele>80</ele>
        <time>2024-10-17T21:45:21.388Z</time>
      </trkpt>
      <trkpt lat="46.90647" lon="-1.13186">
        <ele>81</ele>
        <time>2024-10-17T21:45:27.476Z</time>
      </trkpt>
      <trkpt lat="46.90632" lon="-1.13207">
        <ele>82.8</ele>
        <time>2024-10-17T21:45:33.255Z</time>
      </trkpt>
      <trkpt lat="46.90627" lon="-1.13229">
        <ele>83.8</ele>
        <time>2024-10-17T21:45:35.842Z</time>
      </trkpt>
      <trkpt lat="46.90628" lon="-1.13237">
        <ele>84.1</ele>
        <time>2024-10-17T21:45:39.732Z</time>
      </trkpt>
      <trkpt lat="46.90646" lon="-1.1328">
        <ele>86</ele>
        <time>2024-10-17T21:45:47.351Z</time>
      </trkpt>
      <trkpt lat="46.90653" lon="-1.13311">
        <ele>86.2</ele>
        <time>2024-10-17T21:45:53.306Z</time>
      </trkpt>
      <trkpt lat="46.90653" lon="-1.13351">
        <ele>87.3</ele>
        <time>2024-10-17T21:45:59.907Z</time>
      </trkpt>
      <trkpt lat="46.90648" lon="-1.13395">
        <ele>86.7</ele>
        <time>2024-10-17T21:46:06.946Z</time>
      </trkpt>
      <trkpt lat="46.90651" lon="-1.1341">
        <ele>87.2</ele>
        <time>2024-10-17T21:46:08.691Z</time>
      </trkpt>
      <trkpt lat="46.90662" lon="-1.13427">
        <ele>88.6</ele>
        <time>2024-10-17T21:46:11.303Z</time>
      </trkpt>
      <trkpt lat="46.90683" lon="-1.13442">
        <ele>89</ele>
        <time>2024-10-17T21:46:17.387Z</time>
      </trkpt>
      <trkpt lat="46.90682" lon="-1.13467">
        <ele>89</ele>
        <time>2024-10-17T21:46:20.181Z</time>
      </trkpt>
      <trkpt lat="46.90779" lon="-1.13463">
        <ele>89</ele>
        <time>2024-10-17T21:46:34.598Z</time>
      </trkpt>
      <trkpt lat="46.90782" lon="-1.1346">
        <ele>89</ele>
        <time>2024-10-17T21:46:35.191Z</time>
      </trkpt>
      <trkpt lat="46.90794" lon="-1.13479">
        <ele>89</ele>
        <time>2024-10-17T21:46:38.078Z</time>
      </trkpt>
      <trkpt lat="46.90947" lon="-1.13939">
        <ele>90</ele>
        <time>2024-10-17T21:47:40.164Z</time>
      </trkpt>
      <trkpt lat="46.9103" lon="-1.14185">
        <ele>91</ele>
        <time>2024-10-17T21:48:10.777Z</time>
      </trkpt>
      <trkpt lat="46.91044" lon="-1.14232">
        <ele>91.6</ele>
        <time>2024-10-17T21:48:14.422Z</time>
      </trkpt>
      <trkpt lat="46.91049" lon="-1.14258">
        <ele>92</ele>
        <time>2024-10-17T21:48:17.435Z</time>
      </trkpt>
      <trkpt lat="46.91064" lon="-1.14351">
        <ele>92</ele>
        <time>2024-10-17T21:48:32.141Z</time>
      </trkpt>
      <trkpt lat="46.91069" lon="-1.14351">
        <ele>92</ele>
        <time>2024-10-17T21:48:32.957Z</time>
      </trkpt>
      <trkpt lat="46.91076" lon="-1.14359">
        <ele>92</ele>
        <time>2024-10-17T21:48:34.408Z</time>
      </trkpt>
      <trkpt lat="46.9108" lon="-1.14361">
        <ele>92</ele>
        <time>2024-10-17T21:48:35.098Z</time>
      </trkpt>
      <trkpt lat="46.91103" lon="-1.14365">
        <ele>92</ele>
        <time>2024-10-17T21:48:37.746Z</time>
      </trkpt>
      <trkpt lat="46.91114" lon="-1.14375">
        <ele>91.9</ele>
        <time>2024-10-17T21:48:39.861Z</time>
      </trkpt>
      <trkpt lat="46.91129" lon="-1.144">
        <ele>91.4</ele>
        <time>2024-10-17T21:48:43.574Z</time>
      </trkpt>
      <trkpt lat="46.91181" lon="-1.1452">
        <ele>91.5</ele>
        <time>2024-10-17T21:48:57.996Z</time>
      </trkpt>
      <trkpt lat="46.91311" lon="-1.148">
        <ele>89.8</ele>
        <time>2024-10-17T21:49:35.770Z</time>
      </trkpt>
      <trkpt lat="46.91339" lon="-1.14854">
        <ele>89</ele>
        <time>2024-10-17T21:49:42.016Z</time>
      </trkpt>
      <trkpt lat="46.91523" lon="-1.15179">
        <ele>87.2</ele>
        <time>2024-10-17T21:50:23.533Z</time>
      </trkpt>
      <trkpt lat="46.9156" lon="-1.15262">
        <ele>87.7</ele>
        <time>2024-10-17T21:50:36.346Z</time>
      </trkpt>
      <trkpt lat="46.91787" lon="-1.15898">
        <ele>82.7</ele>
        <time>2024-10-17T21:51:53.397Z</time>
      </trkpt>
      <trkpt lat="46.9181" lon="-1.15965">
        <ele>82.8</ele>
        <time>2024-10-17T21:52:00.425Z</time>
      </trkpt>
      <trkpt lat="46.91861" lon="-1.16099">
        <ele>81.4</ele>
        <time>2024-10-17T21:52:14.855Z</time>
      </trkpt>
      <trkpt lat="46.91902" lon="-1.16178">
        <ele>78.3</ele>
        <time>2024-10-17T21:52:23.433Z</time>
      </trkpt>
      <trkpt lat="46.91936" lon="-1.16225">
        <ele>77.3</ele>
        <time>2024-10-17T21:52:29.751Z</time>
      </trkpt>
      <trkpt lat="46.91976" lon="-1.16271">
        <ele>78.8</ele>
        <time>2024-10-17T21:52:38.059Z</time>
      </trkpt>
      <trkpt lat="46.92034" lon="-1.16321">
        <ele>80</ele>
        <time>2024-10-17T21:52:49.052Z</time>
      </trkpt>
      <trkpt lat="46.92512" lon="-1.16695">
        <ele>80</ele>
        <time>2024-10-17T21:54:19.149Z</time>
      </trkpt>
      <trkpt lat="46.92975" lon="-1.17062">
        <ele>84.8</ele>
        <time>2024-10-17T21:55:53.533Z</time>
      </trkpt>
      <trkpt lat="46.93137" lon="-1.17186">
        <ele>87</ele>
        <time>2024-10-17T21:56:28.731Z</time>
      </trkpt>
      <trkpt lat="46.93214" lon="-1.1725">
        <ele>87</ele>
        <time>2024-10-17T21:56:41.770Z</time>
      </trkpt>
      <trkpt lat="46.93326" lon="-1.17333">
        <ele>89</ele>
        <time>2024-10-17T21:57:05.818Z</time>
      </trkpt>
      <trkpt lat="46.93491" lon="-1.17467">
        <ele>89.7</ele>
        <time>2024-10-17T21:57:36.634Z</time>
      </trkpt>
      <trkpt lat="46.9357" lon="-1.17523">
        <ele>90.9</ele>
        <time>2024-10-17T21:57:57.236Z</time>
      </trkpt>
      <trkpt lat="46.93611" lon="-1.17559">
        <ele>91</ele>
        <time>2024-10-17T21:58:05.044Z</time>
      </trkpt>
      <trkpt lat="46.93645" lon="-1.176">
        <ele>91.3</ele>
        <time>2024-10-17T21:58:14.119Z</time>
      </trkpt>
      <trkpt lat="46.93884" lon="-1.17919">
        <ele>91</ele>
        <time>2024-10-17T21:59:03.976Z</time>
      </trkpt>
      <trkpt lat="46.9407" lon="-1.18176">
        <ele>92</ele>
        <time>2024-10-17T21:59:49.052Z</time>
      </trkpt>
      <trkpt lat="46.94277" lon="-1.18457">
        <ele>89.5</ele>
        <time>2024-10-17T22:00:30.861Z</time>
      </trkpt>
      <trkpt lat="46.94291" lon="-1.18484">
        <ele>89</ele>
        <time>2024-10-17T22:00:34.642Z</time>
      </trkpt>
      <trkpt lat="46.94296" lon="-1.18484">
        <ele>89</ele>
        <time>2024-10-17T22:00:35.458Z</time>
      </trkpt>
      <trkpt lat="46.943" lon="-1.1849">
        <ele>89</ele>
        <time>2024-10-17T22:00:36.394Z</time>
      </trkpt>
      <trkpt lat="46.94299" lon="-1.18499">
        <ele>89</ele>
        <time>2024-10-17T22:00:37.410Z</time>
      </trkpt>
      <trkpt lat="46.94322" lon="-1.18517">
        <ele>89</ele>
        <time>2024-10-17T22:00:41.670Z</time>
      </trkpt>
      <trkpt lat="46.9436" lon="-1.18565">
        <ele>88</ele>
        <time>2024-10-17T22:00:48.532Z</time>
      </trkpt>
      <trkpt lat="46.9444" lon="-1.18675">
        <ele>86.2</ele>
        <time>2024-10-17T22:01:03.753Z</time>
      </trkpt>
      <trkpt lat="46.94435" lon="-1.18696">
        <ele>86.3</ele>
        <time>2024-10-17T22:01:06.233Z</time>
      </trkpt>
      <trkpt lat="46.94435" lon="-1.18697">
        <ele>86.2</ele>
        <time>2024-10-17T22:01:06.345Z</time>
      </trkpt>
      <trkpt lat="46.9444" lon="-1.18675">
        <ele>86.2</ele>
        <time>2024-10-17T22:01:08.930Z</time>
      </trkpt>
      <trkpt lat="46.94697" lon="-1.1903">
        <ele>71.8</ele>
        <time>2024-10-17T22:01:49.521Z</time>
      </trkpt>
      <trkpt lat="46.94787" lon="-1.19159">
        <ele>68.8</ele>
        <time>2024-10-17T22:02:10.087Z</time>
      </trkpt>
      <trkpt lat="46.94814" lon="-1.19129">
        <ele>71.8</ele>
        <time>2024-10-17T22:02:20.942Z</time>
      </trkpt>
      <trkpt lat="46.94827" lon="-1.19104">
        <ele>74.3</ele>
        <time>2024-10-17T22:02:26.798Z</time>
      </trkpt>
      <trkpt lat="46.94836" lon="-1.19101">
        <ele>75.6</ele>
        <time>2024-10-17T22:02:32.381Z</time>
      </trkpt>
      <trkpt lat="46.9486" lon="-1.19103">
        <ele>77.9</ele>
        <time>2024-10-17T22:02:49.208Z</time>
      </trkpt>
      <trkpt lat="46.94872" lon="-1.19075">
        <ele>78.4</ele>
        <time>2024-10-17T22:02:55.195Z</time>
      </trkpt>
      <trkpt lat="46.94921" lon="-1.1907">
        <ele>80</ele>
        <time>2024-10-17T22:03:07.662Z</time>
      </trkpt>
      <trkpt lat="46.94945" lon="-1.19058">
        <ele>80</ele>
        <time>2024-10-17T22:03:11.804Z</time>
      </trkpt>
      <trkpt lat="46.94971" lon="-1.19056">
        <ele>80</ele>
        <time>2024-10-17T22:03:16.056Z</time>
      </trkpt>
      <trkpt lat="46.9508" lon="-1.19182">
        <ele>80.1</ele>
        <time>2024-10-17T22:03:35.956Z</time>
      </trkpt>
      <trkpt lat="46.95108" lon="-1.19211">
        <ele>80.6</ele>
        <time>2024-10-17T22:03:41.557Z</time>
      </trkpt>
      <trkpt lat="46.95126" lon="-1.19219">
        <ele>80.9</ele>
        <time>2024-10-17T22:03:44.629Z</time>
      </trkpt>
      <trkpt lat="46.95167" lon="-1.19226">
        <ele>81</ele>
        <time>2024-10-17T22:03:53.279Z</time>
      </trkpt>
      <trkpt lat="46.95203" lon="-1.19212">
        <ele>81.3</ele>
        <time>2024-10-17T22:04:04.407Z</time>
      </trkpt>
      <trkpt lat="46.95243" lon="-1.19192">
        <ele>82</ele>
        <time>2024-10-17T22:04:13.208Z</time>
      </trkpt>
      <trkpt lat="46.95265" lon="-1.19187">
        <ele>82.5</ele>
        <time>2024-10-17T22:04:19.158Z</time>
      </trkpt>
      <trkpt lat="46.95289" lon="-1.19185">
        <ele>83</ele>
        <time>2024-10-17T22:04:23.084Z</time>
      </trkpt>
      <trkpt lat="46.95471" lon="-1.1919">
        <ele>83</ele>
        <time>2024-10-17T22:04:51.328Z</time>
      </trkpt>
      <trkpt lat="46.95644" lon="-1.19161">
        <ele>85.2</ele>
        <time>2024-10-17T22:05:19.769Z</time>
      </trkpt>
      <trkpt lat="46.95694" lon="-1.19169">
        <ele>86</ele>
        <time>2024-10-17T22:05:27.984Z</time>
      </trkpt>
      <trkpt lat="46.95759" lon="-1.19203">
        <ele>86</ele>
        <time>2024-10-17T22:05:43.239Z</time>
      </trkpt>
      <trkpt lat="46.95806" lon="-1.19237">
        <ele>86</ele>
        <time>2024-10-17T22:05:50.458Z</time>
      </trkpt>
      <trkpt lat="46.95857" lon="-1.19295">
        <ele>85</ele>
        <time>2024-10-17T22:06:01.003Z</time>
      </trkpt>
      <trkpt lat="46.96296" lon="-1.19963">
        <ele>79</ele>
        <time>2024-10-17T22:07:34.405Z</time>
      </trkpt>
      <trkpt lat="46.96375" lon="-1.20058">
        <ele>79.5</ele>
        <time>2024-10-17T22:07:52.780Z</time>
      </trkpt>
      <trkpt lat="46.96421" lon="-1.20108">
        <ele>79</ele>
        <time>2024-10-17T22:08:02.134Z</time>
      </trkpt>
      <trkpt lat="46.96454" lon="-1.20137">
        <ele>79</ele>
        <time>2024-10-17T22:08:08.419Z</time>
      </trkpt>
      <trkpt lat="46.96665" lon="-1.20281">
        <ele>76.9</ele>
        <time>2024-10-17T22:08:43.533Z</time>
      </trkpt>
      <trkpt lat="46.97182" lon="-1.20642">
        <ele>71.4</ele>
        <time>2024-10-17T22:10:08.485Z</time>
      </trkpt>
      <trkpt lat="46.97209" lon="-1.20655">
        <ele>70.5</ele>
        <time>2024-10-17T22:10:13.127Z</time>
      </trkpt>
      <trkpt lat="46.97327" lon="-1.20675">
        <ele>73.5</ele>
        <time>2024-10-17T22:10:38.303Z</time>
      </trkpt>
      <trkpt lat="46.97341" lon="-1.20676">
        <ele>74.3</ele>
        <time>2024-10-17T22:10:40.593Z</time>
      </trkpt>
      <trkpt lat="46.97369" lon="-1.20672">
        <ele>75.3</ele>
        <time>2024-10-17T22:10:45.188Z</time>
      </trkpt>
      <trkpt lat="46.97381" lon="-1.20667">
        <ele>75.7</ele>
        <time>2024-10-17T22:10:47.225Z</time>
      </trkpt>
      <trkpt lat="46.974" lon="-1.20657">
        <ele>76.4</ele>
        <time>2024-10-17T22:10:52.943Z</time>
      </trkpt>
      <trkpt lat="46.97552" lon="-1.20566">
        <ele>77.9</ele>
        <time>2024-10-17T22:11:21.393Z</time>
      </trkpt>
      <trkpt lat="46.97681" lon="-1.20513">
        <ele>78</ele>
        <time>2024-10-17T22:11:44.925Z</time>
      </trkpt>
      <trkpt lat="46.97817" lon="-1.20481">
        <ele>78</ele>
        <time>2024-10-17T22:12:23.032Z</time>
      </trkpt>
      <trkpt lat="46.97817" lon="-1.20393">
        <ele>77</ele>
        <time>2024-10-17T22:12:39.590Z</time>
      </trkpt>
      <trkpt lat="46.97814" lon="-1.20298">
        <ele>76</ele>
        <time>2024-10-17T22:12:57.378Z</time>
      </trkpt>
      <trkpt lat="46.97803" lon="-1.20217">
        <ele>77</ele>
        <time>2024-10-17T22:13:13.061Z</time>
      </trkpt>
      <trkpt lat="46.97773" lon="-1.20071">
        <ele>78</ele>
        <time>2024-10-17T22:13:41.687Z</time>
      </trkpt>
      <trkpt lat="46.97744" lon="-1.19957">
        <ele>78</ele>
        <time>2024-10-17T22:14:04.565Z</time>
      </trkpt>
      <trkpt lat="46.97709" lon="-1.19824">
        <ele>78</ele>
        <time>2024-10-17T22:14:31.416Z</time>
      </trkpt>
      <trkpt lat="46.97689" lon="-1.19723">
        <ele>78</ele>
        <time>2024-10-17T22:14:51.222Z</time>
      </trkpt>
      <trkpt lat="46.97677" lon="-1.19607">
        <ele>78.6</ele>
        <time>2024-10-17T22:15:13.264Z</time>
      </trkpt>
      <trkpt lat="46.97668" lon="-1.19489">
        <ele>79</ele>
        <time>2024-10-17T22:15:35.618Z</time>
      </trkpt>
      <trkpt lat="46.97648" lon="-1.19367">
        <ele>80.5</ele>
        <time>2024-10-17T22:15:59.324Z</time>
      </trkpt>
      <trkpt lat="46.97636" lon="-1.1926">
        <ele>80</ele>
        <time>2024-10-17T22:16:19.724Z</time>
      </trkpt>
      <trkpt lat="46.97633" lon="-1.19112">
        <ele>81</ele>
        <time>2024-10-17T22:16:47.634Z</time>
      </trkpt>
      <trkpt lat="46.9763" lon="-1.18966">
        <ele>83.8</ele>
        <time>2024-10-17T22:17:15.109Z</time>
      </trkpt>
      <trkpt lat="46.97627" lon="-1.18666">
        <ele>85</ele>
        <time>2024-10-17T22:18:11.456Z</time>
      </trkpt>
      <trkpt lat="46.97621" lon="-1.18532">
        <ele>86</ele>
        <time>2024-10-17T22:18:36.750Z</time>
      </trkpt>
      <trkpt lat="46.97618" lon="-1.18481">
        <ele>86.2</ele>
        <time>2024-10-17T22:18:46.477Z</time>
      </trkpt>
      <trkpt lat="46.97623" lon="-1.18446">
        <ele>86.4</ele>
        <time>2024-10-17T22:18:53.051Z</time>
      </trkpt>
      <trkpt lat="46.97629" lon="-1.18384">
        <ele>86</ele>
        <time>2024-10-17T22:19:04.903Z</time>
      </trkpt>
      <trkpt lat="46.97629" lon="-1.18332">
        <ele>86</ele>
        <time>2024-10-17T22:19:14.801Z</time>
      </trkpt>
      <trkpt lat="46.9762" lon="-1.18262">
        <ele>86</ele>
        <time>2024-10-17T22:19:28.092Z</time>
      </trkpt>
      <trkpt lat="46.97618" lon="-1.18153">
        <ele>86</ele>
        <time>2024-10-17T22:19:48.521Z</time>
      </trkpt>
      <trkpt lat="46.97632" lon="-1.17958">
        <ele>87</ele>
        <time>2024-10-17T22:20:25.473Z</time>
      </trkpt>
      <trkpt lat="46.97651" lon="-1.17843">
        <ele>87.8</ele>
        <time>2024-10-17T22:20:47.711Z</time>
      </trkpt>
      <trkpt lat="46.977" lon="-1.17782">
        <ele>88</ele>
        <time>2024-10-17T22:21:05.321Z</time>
      </trkpt>
      <trkpt lat="46.97802" lon="-1.17684">
        <ele>86.1</ele>
        <time>2024-10-17T22:21:39.150Z</time>
      </trkpt>
      <trkpt lat="46.9787" lon="-1.17621">
        <ele>83.8</ele>
        <time>2024-10-17T22:22:01.283Z</time>
      </trkpt>
      <trkpt lat="46.97916" lon="-1.1753">
        <ele>82</ele>
        <time>2024-10-17T22:22:22.646Z</time>
      </trkpt>
      <trkpt lat="46.97963" lon="-1.17449">
        <ele>80.9</ele>
        <time>2024-10-17T22:22:42.711Z</time>
      </trkpt>
      <trkpt lat="46.97996" lon="-1.17426">
        <ele>81</ele>
        <time>2024-10-17T22:22:52.737Z</time>
      </trkpt>
      <trkpt lat="46.98032" lon="-1.17378">
        <ele>82.5</ele>
        <time>2024-10-17T22:23:06.171Z</time>
      </trkpt>
      <trkpt lat="46.98135" lon="-1.17163">
        <ele>88</ele>
        <time>2024-10-17T22:23:55.581Z</time>
      </trkpt>
      <trkpt lat="46.98181" lon="-1.1708">
        <ele>88</ele>
        <time>2024-10-17T22:24:15.827Z</time>
      </trkpt>
      <trkpt lat="46.98218" lon="-1.16997">
        <ele>88</ele>
        <time>2024-10-17T22:24:34.365Z</time>
      </trkpt>
      <trkpt lat="46.98244" lon="-1.16919">
        <ele>87</ele>
        <time>2024-10-17T22:24:50.799Z</time>
      </trkpt>
      <trkpt lat="46.98192" lon="-1.16833">
        <ele>87.1</ele>
        <time>2024-10-17T22:25:12.397Z</time>
      </trkpt>
      <trkpt lat="46.98123" lon="-1.16732">
        <ele>88</ele>
        <time>2024-10-17T22:25:39.240Z</time>
      </trkpt>
      <trkpt lat="46.98057" lon="-1.16635">
        <ele>89</ele>
        <time>2024-10-17T22:26:04.941Z</time>
      </trkpt>
      <trkpt lat="46.97976" lon="-1.16552">
        <ele>90</ele>
        <time>2024-10-17T22:26:32.501Z</time>
      </trkpt>
      <trkpt lat="46.97918" lon="-1.16481">
        <ele>91</ele>
        <time>2024-10-17T22:26:53.133Z</time>
      </trkpt>
      <trkpt lat="46.97867" lon="-1.16371">
        <ele>91</ele>
        <time>2024-10-17T22:27:18.113Z</time>
      </trkpt>
      <trkpt lat="46.97847" lon="-1.16324">
        <ele>90.5</ele>
        <time>2024-10-17T22:27:28.643Z</time>
      </trkpt>
      <trkpt lat="46.97858" lon="-1.16232">
        <ele>90.7</ele>
        <time>2024-10-17T22:27:46.306Z</time>
      </trkpt>
      <trkpt lat="46.97902" lon="-1.16022">
        <ele>91.5</ele>
        <time>2024-10-17T22:28:27.696Z</time>
      </trkpt>
      <trkpt lat="46.97917" lon="-1.15899">
        <ele>92</ele>
        <time>2024-10-17T22:28:51.069Z</time>
      </trkpt>
      <trkpt lat="46.97914" lon="-1.15852">
        <ele>92.9</ele>
        <time>2024-10-17T22:28:59.991Z</time>
      </trkpt>
      <trkpt lat="46.97842" lon="-1.1556">
        <ele>91</ele>
        <time>2024-10-17T22:29:58.586Z</time>
      </trkpt>
      <trkpt lat="46.97817" lon="-1.15417">
        <ele>92</ele>
        <time>2024-10-17T22:30:26.353Z</time>
      </trkpt>
      <trkpt lat="46.97796" lon="-1.15325">
        <ele>92</ele>
        <time>2024-10-17T22:30:44.425Z</time>
      </trkpt>
      <trkpt lat="46.9777" lon="-1.1526">
        <ele>92</ele>
        <time>2024-10-17T22:30:58.729Z</time>
      </trkpt>
      <trkpt lat="46.97711" lon="-1.1519">
        <ele>91</ele>
        <time>2024-10-17T22:31:19.701Z</time>
      </trkpt>
      <trkpt lat="46.97659" lon="-1.15138">
        <ele>91</ele>
        <time>2024-10-17T22:31:37.122Z</time>
      </trkpt>
      <trkpt lat="46.97612" lon="-1.15108">
        <ele>92</ele>
        <time>2024-10-17T22:31:51.229Z</time>
      </trkpt>
      <trkpt lat="46.97478" lon="-1.15055">
        <ele>93</ele>
        <time>2024-10-17T22:32:29.292Z</time>
      </trkpt>
      <trkpt lat="46.97284" lon="-1.14983">
        <ele>94</ele>
        <time>2024-10-17T22:33:24.493Z</time>
      </trkpt>
      <trkpt lat="46.97216" lon="-1.14953">
        <ele>95</ele>
        <time>2024-10-17T22:33:44.300Z</time>
      </trkpt>
      <trkpt lat="46.97197" lon="-1.14927">
        <ele>95</ele>
        <time>2024-10-17T22:33:51.298Z</time>
      </trkpt>
      <trkpt lat="46.97179" lon="-1.1488">
        <ele>95.6</ele>
        <time>2024-10-17T22:34:01.518Z</time>
      </trkpt>
      <trkpt lat="46.97178" lon="-1.1481">
        <ele>95</ele>
        <time>2024-10-17T22:34:14.646Z</time>
      </trkpt>
      <trkpt lat="46.97172" lon="-1.14416">
        <ele>95</ele>
        <time>2024-10-17T22:35:28.989Z</time>
      </trkpt>
      <trkpt lat="46.97169" lon="-1.14074">
        <ele>97.9</ele>
        <time>2024-10-17T22:36:33.217Z</time>
      </trkpt>
      <trkpt lat="46.97161" lon="-1.14016">
        <ele>98</ele>
        <time>2024-10-17T22:36:44.423Z</time>
      </trkpt>
      <trkpt lat="46.97126" lon="-1.13864">
        <ele>99</ele>
        <time>2024-10-17T22:37:14.573Z</time>
      </trkpt>
      <trkpt lat="46.9705" lon="-1.13658">
        <ele>99</ele>
        <time>2024-10-17T22:37:58.674Z</time>
      </trkpt>
      <trkpt lat="46.97012" lon="-1.13566">
        <ele>99</ele>
        <time>2024-10-17T22:38:18.972Z</time>
      </trkpt>
      <trkpt lat="46.96987" lon="-1.13511">
        <ele>98.5</ele>
        <time>2024-10-17T22:38:31.463Z</time>
      </trkpt>
      <trkpt lat="46.96907" lon="-1.13359">
        <ele>97.3</ele>
        <time>2024-10-17T22:39:07.618Z</time>
      </trkpt>
      <trkpt lat="46.96897" lon="-1.13322">
        <ele>97</ele>
        <time>2024-10-17T22:39:14.968Z</time>
      </trkpt>
      <trkpt lat="46.96896" lon="-1.1329">
        <ele>97</ele>
        <time>2024-10-17T22:39:21.054Z</time>
      </trkpt>
      <trkpt lat="46.96898" lon="-1.13234">
        <ele>97</ele>
        <time>2024-10-17T22:39:31.550Z</time>
      </trkpt>
      <trkpt lat="46.96893" lon="-1.13186">
        <ele>97</ele>
        <time>2024-10-17T22:39:40.748Z</time>
      </trkpt>
      <trkpt lat="46.96875" lon="-1.13089">
        <ele>97</ele>
        <time>2024-10-17T22:39:59.560Z</time>
      </trkpt>
      <trkpt lat="46.9686" lon="-1.12988">
        <ele>97</ele>
        <time>2024-10-17T22:40:19.210Z</time>
      </trkpt>
      <trkpt lat="46.96831" lon="-1.12849">
        <ele>98.4</ele>
        <time>2024-10-17T22:40:46.434Z</time>
      </trkpt>
      <trkpt lat="46.96782" lon="-1.12561">
        <ele>100</ele>
        <time>2024-10-17T22:41:42.469Z</time>
      </trkpt>
      <trkpt lat="46.96768" lon="-1.12479">
        <ele>101</ele>
        <time>2024-10-17T22:41:58.291Z</time>
      </trkpt>
      <trkpt lat="46.96766" lon="-1.12433">
        <ele>101</ele>
        <time>2024-10-17T22:42:06.985Z</time>
      </trkpt>
      <trkpt lat="46.96777" lon="-1.12326">
        <ele>102</ele>
        <time>2024-10-17T22:42:27.408Z</time>
      </trkpt>
      <trkpt lat="46.96772" lon="-1.12284">
        <ele>102.2</ele>
        <time>2024-10-17T22:42:35.411Z</time>
      </trkpt>
      <trkpt lat="46.9677" lon="-1.12252">
        <ele>103</ele>
        <time>2024-10-17T22:42:41.500Z</time>
      </trkpt>
      <trkpt lat="46.96776" lon="-1.1224">
        <ele>103</ele>
        <time>2024-10-17T22:42:44.247Z</time>
      </trkpt>
      <trkpt lat="46.96782" lon="-1.12243">
        <ele>103</ele>
        <time>2024-10-17T22:42:46.163Z</time>
      </trkpt>
      <trkpt lat="46.96782" lon="-1.12157">
        <ele>103</ele>
        <time>2024-10-17T22:43:02.320Z</time>
      </trkpt>
      <trkpt lat="46.96782" lon="-1.12018">
        <ele>103.7</ele>
        <time>2024-10-17T22:43:28.576Z</time>
      </trkpt>
      <trkpt lat="46.9678" lon="-1.11944">
        <ele>104</ele>
        <time>2024-10-17T22:43:42.526Z</time>
      </trkpt>
      <trkpt lat="46.96775" lon="-1.11909">
        <ele>104.3</ele>
        <time>2024-10-17T22:43:49.142Z</time>
      </trkpt>
      <trkpt lat="46.96749" lon="-1.11866">
        <ele>105</ele>
        <time>2024-10-17T22:43:59.877Z</time>
      </trkpt>
      <trkpt lat="46.96694" lon="-1.11767">
        <ele>107</ele>
        <time>2024-10-17T22:44:24.135Z</time>
      </trkpt>
      <trkpt lat="46.96664" lon="-1.11716">
        <ele>107.8</ele>
        <time>2024-10-17T22:44:36.732Z</time>
      </trkpt>
      <trkpt lat="46.96769" lon="-1.11614">
        <ele>108</ele>
        <time>2024-10-17T22:45:11.577Z</time>
      </trkpt>
      <trkpt lat="46.96889" lon="-1.11535">
        <ele>102</ele>
        <time>2024-10-17T22:45:47.915Z</time>
      </trkpt>
      <trkpt lat="46.97147" lon="-1.11365">
        <ele>90.6</ele>
        <time>2024-10-17T22:47:05.840Z</time>
      </trkpt>
      <trkpt lat="46.97231" lon="-1.11306">
        <ele>85.7</ele>
        <time>2024-10-17T22:47:31.586Z</time>
      </trkpt>
      <trkpt lat="46.97369" lon="-1.11236">
        <ele>80.3</ele>
        <time>2024-10-17T22:48:11.825Z</time>
      </trkpt>
      <trkpt lat="46.97411" lon="-1.11216">
        <ele>81.8</ele>
        <time>2024-10-17T22:48:24.089Z</time>
      </trkpt>
      <trkpt lat="46.97446" lon="-1.11211">
        <ele>83.9</ele>
        <time>2024-10-17T22:48:33.634Z</time>
      </trkpt>
      <trkpt lat="46.97571" lon="-1.11223">
        <ele>88.6</ele>
        <time>2024-10-17T22:49:08.239Z</time>
      </trkpt>
      <trkpt lat="46.97739" lon="-1.11242">
        <ele>86.3</ele>
        <time>2024-10-17T22:49:54.828Z</time>
      </trkpt>
      <trkpt lat="46.97874" lon="-1.1126">
        <ele>85.5</ele>
        <time>2024-10-17T22:50:32.143Z</time>
      </trkpt>
      <trkpt lat="46.97919" lon="-1.1126">
        <ele>87.7</ele>
        <time>2024-10-17T22:50:44.663Z</time>
      </trkpt>
      <trkpt lat="46.97993" lon="-1.11237">
        <ele>89.6</ele>
        <time>2024-10-17T22:51:05.536Z</time>
      </trkpt>
      <trkpt lat="46.98245" lon="-1.11155">
        <ele>90.5</ele>
        <time>2024-10-17T22:52:16.674Z</time>
      </trkpt>
      <trkpt lat="46.98473" lon="-1.11091">
        <ele>94</ele>
        <time>2024-10-17T22:53:20.629Z</time>
      </trkpt>
      <trkpt lat="46.98737" lon="-1.11016">
        <ele>93.8</ele>
        <time>2024-10-17T22:54:34.876Z</time>
      </trkpt>
      <trkpt lat="46.98832" lon="-1.1099">
        <ele>90.3</ele>
        <time>2024-10-17T22:55:01.567Z</time>
      </trkpt>
      <trkpt lat="46.99013" lon="-1.10965">
        <ele>81.4</ele>
        <time>2024-10-17T22:55:51.852Z</time>
      </trkpt>
      <trkpt lat="46.9904" lon="-1.10951">
        <ele>79.7</ele>
        <time>2024-10-17T22:55:59.579Z</time>
      </trkpt>
      <trkpt lat="46.99126" lon="-1.10886">
        <ele>76.2</ele>
        <time>2024-10-17T22:56:26.396Z</time>
      </trkpt>
      <trkpt lat="46.99186" lon="-1.10841">
        <ele>71.2</ele>
        <time>2024-10-17T22:56:44.996Z</time>
      </trkpt>
      <trkpt lat="46.99226" lon="-1.10825">
        <ele>68.9</ele>
        <time>2024-10-17T22:56:56.505Z</time>
      </trkpt>
      <trkpt lat="46.99275" lon="-1.10819">
        <ele>66.1</ele>
        <time>2024-10-17T22:57:10.069Z</time>
      </trkpt>
      <trkpt lat="46.99294" lon="-1.1082">
        <ele>69.5</ele>
        <time>2024-10-17T22:57:15.321Z</time>
      </trkpt>
      <trkpt lat="46.99324" lon="-1.10842">
        <ele>71.4</ele>
        <time>2024-10-17T22:57:24.530Z</time>
      </trkpt>
      <trkpt lat="46.99344" lon="-1.10863">
        <ele>72.5</ele>
        <time>2024-10-17T22:57:31.313Z</time>
      </trkpt>
      <trkpt lat="46.99353" lon="-1.10888">
        <ele>73.5</ele>
        <time>2024-10-17T22:57:36.550Z</time>
      </trkpt>
      <trkpt lat="46.99361" lon="-1.10948">
        <ele>76.1</ele>
        <time>2024-10-17T22:57:48.070Z</time>
      </trkpt>
      <trkpt lat="46.99389" lon="-1.11013">
        <ele>79.5</ele>
        <time>2024-10-17T22:58:02.578Z</time>
      </trkpt>
      <trkpt lat="46.99422" lon="-1.11056">
        <ele>81.7</ele>
        <time>2024-10-17T22:58:14.733Z</time>
      </trkpt>
      <trkpt lat="46.99444" lon="-1.11071">
        <ele>83.7</ele>
        <time>2024-10-17T22:58:21.416Z</time>
      </trkpt>
      <trkpt lat="46.99474" lon="-1.11072">
        <ele>84.8</ele>
        <time>2024-10-17T22:58:29.694Z</time>
      </trkpt>
      <trkpt lat="46.99507" lon="-1.11053">
        <ele>86.4</ele>
        <time>2024-10-17T22:58:39.419Z</time>
      </trkpt>
      <trkpt lat="46.99543" lon="-1.11025">
        <ele>87.5</ele>
        <time>2024-10-17T22:58:50.796Z</time>
      </trkpt>
      <trkpt lat="46.99559" lon="-1.10995">
        <ele>88</ele>
        <time>2024-10-17T22:58:57.861Z</time>
      </trkpt>
      <trkpt lat="46.99585" lon="-1.1093">
        <ele>87.9</ele>
        <time>2024-10-17T22:59:12.159Z</time>
      </trkpt>
      <trkpt lat="46.99611" lon="-1.10882">
        <ele>88</ele>
        <time>2024-10-17T22:59:23.668Z</time>
      </trkpt>
      <trkpt lat="46.99642" lon="-1.10855">
        <ele>87.1</ele>
        <time>2024-10-17T22:59:33.709Z</time>
      </trkpt>
      <trkpt lat="46.99769" lon="-1.10833">
        <ele>84</ele>
        <time>2024-10-17T23:00:08.865Z</time>
      </trkpt>
      <trkpt lat="46.99909" lon="-1.10805">
        <ele>81.3</ele>
        <time>2024-10-17T23:00:47.977Z</time>
      </trkpt>
      <trkpt lat="47.0008" lon="-1.10775">
        <ele>87</ele>
        <time>2024-10-17T23:01:35.349Z</time>
      </trkpt>
      <trkpt lat="47.00115" lon="-1.1078">
        <ele>89.1</ele>
        <time>2024-10-17T23:01:45.071Z</time>
      </trkpt>
      <trkpt lat="47.00361" lon="-1.10839">
        <ele>89.8</ele>
        <time>2024-10-17T23:02:53.797Z</time>
      </trkpt>
      <trkpt lat="47.00527" lon="-1.10877">
        <ele>92</ele>
        <time>2024-10-17T23:03:40.389Z</time>
      </trkpt>
      <trkpt lat="47.00664" lon="-1.10913">
        <ele>96.1</ele>
        <time>2024-10-17T23:04:18.717Z</time>
      </trkpt>
      <trkpt lat="47.00732" lon="-1.10924">
        <ele>98.6</ele>
        <time>2024-10-17T23:04:37.618Z</time>
      </trkpt>
      <trkpt lat="47.00755" lon="-1.10933">
        <ele>99.6</ele>
        <time>2024-10-17T23:04:44.080Z</time>
      </trkpt>
      <trkpt lat="47.00746" lon="-1.10796">
        <ele>102</ele>
        <time>2024-10-17T23:05:09.958Z</time>
      </trkpt>
      <trkpt lat="47.00735" lon="-1.10701">
        <ele>103</ele>
        <time>2024-10-17T23:05:27.682Z</time>
      </trkpt>
      <trkpt lat="47.0072" lon="-1.1062">
        <ele>104.6</ele>
        <time>2024-10-17T23:05:38.827Z</time>
      </trkpt>
      <trkpt lat="47.00702" lon="-1.10555">
        <ele>106</ele>
        <time>2024-10-17T23:05:46.641Z</time>
      </trkpt>
      <trkpt lat="47.00682" lon="-1.10487">
        <ele>106.8</ele>
        <time>2024-10-17T23:05:54.889Z</time>
      </trkpt>
      <trkpt lat="47.00632" lon="-1.10339">
        <ele>105.7</ele>
        <time>2024-10-17T23:06:13.285Z</time>
      </trkpt>
      <trkpt lat="47.00574" lon="-1.10184">
        <ele>105.2</ele>
        <time>2024-10-17T23:06:38.732Z</time>
      </trkpt>
      <trkpt lat="47.00538" lon="-1.101">
        <ele>105.4</ele>
        <time>2024-10-17T23:06:49.783Z</time>
      </trkpt>
      <trkpt lat="47.00494" lon="-1.10011">
        <ele>105.9</ele>
        <time>2024-10-17T23:06:59.486Z</time>
      </trkpt>
      <trkpt lat="47.00419" lon="-1.09874">
        <ele>107</ele>
        <time>2024-10-17T23:07:22.623Z</time>
      </trkpt>
      <trkpt lat="47.00341" lon="-1.09748">
        <ele>107.3</ele>
        <time>2024-10-17T23:07:43.244Z</time>
      </trkpt>
      <trkpt lat="47.0027" lon="-1.09647">
        <ele>107</ele>
        <time>2024-10-17T23:07:55.686Z</time>
      </trkpt>
      <trkpt lat="47.00195" lon="-1.09562">
        <ele>107</ele>
        <time>2024-10-17T23:08:11.168Z</time>
      </trkpt>
      <trkpt lat="47.00126" lon="-1.09509">
        <ele>106</ele>
        <time>2024-10-17T23:08:23.891Z</time>
      </trkpt>
      <trkpt lat="47.00032" lon="-1.09448">
        <ele>106</ele>
        <time>2024-10-17T23:08:40.680Z</time>
      </trkpt>
      <trkpt lat="46.99885" lon="-1.09357">
        <ele>104</ele>
        <time>2024-10-17T23:09:02.708Z</time>
      </trkpt>
      <trkpt lat="46.99805" lon="-1.09313">
        <ele>102.3</ele>
        <time>2024-10-17T23:09:16.664Z</time>
      </trkpt>
      <trkpt lat="46.99626" lon="-1.09194">
        <ele>99.5</ele>
        <time>2024-10-17T23:09:45.897Z</time>
      </trkpt>
      <trkpt lat="46.99536" lon="-1.09126">
        <ele>101.3</ele>
        <time>2024-10-17T23:10:06.100Z</time>
      </trkpt>
      <trkpt lat="46.99484" lon="-1.0908">
        <ele>103</ele>
        <time>2024-10-17T23:10:17.800Z</time>
      </trkpt>
      <trkpt lat="46.99357" lon="-1.08947">
        <ele>108.1</ele>
        <time>2024-10-17T23:10:53.531Z</time>
      </trkpt>
      <trkpt lat="46.99261" lon="-1.08856">
        <ele>110</ele>
        <time>2024-10-17T23:11:13.871Z</time>
      </trkpt>
      <trkpt lat="46.99184" lon="-1.08798">
        <ele>110</ele>
        <time>2024-10-17T23:11:28.010Z</time>
      </trkpt>
      <trkpt lat="46.99068" lon="-1.0872">
        <ele>110.5</ele>
        <time>2024-10-17T23:11:50.510Z</time>
      </trkpt>
      <trkpt lat="46.9896" lon="-1.08657">
        <ele>111</ele>
        <time>2024-10-17T23:12:08.043Z</time>
      </trkpt>
      <trkpt lat="46.9884" lon="-1.08602">
        <ele>111</ele>
        <time>2024-10-17T23:12:32.124Z</time>
      </trkpt>
      <trkpt lat="46.98651" lon="-1.08509">
        <ele>111</ele>
        <time>2024-10-17T23:13:04.686Z</time>
      </trkpt>
      <trkpt lat="46.98635" lon="-1.08499">
        <ele>111</ele>
        <time>2024-10-17T23:13:07.527Z</time>
      </trkpt>
      <trkpt lat="46.98563" lon="-1.08462">
        <ele>110.2</ele>
        <time>2024-10-17T23:13:18.585Z</time>
      </trkpt>
      <trkpt lat="46.98383" lon="-1.08329">
        <ele>111</ele>
        <time>2024-10-17T23:13:53.125Z</time>
      </trkpt>
      <trkpt lat="46.98289" lon="-1.08269">
        <ele>112.9</ele>
        <time>2024-10-17T23:14:09.871Z</time>
      </trkpt>
      <trkpt lat="46.98217" lon="-1.08233">
        <ele>114.2</ele>
        <time>2024-10-17T23:14:26.182Z</time>
      </trkpt>
      <trkpt lat="46.98104" lon="-1.08165">
        <ele>117.3</ele>
        <time>2024-10-17T23:14:49.693Z</time>
      </trkpt>
      <trkpt lat="46.98022" lon="-1.081">
        <ele>119.2</ele>
        <time>2024-10-17T23:15:13.997Z</time>
      </trkpt>
      <trkpt lat="46.97931" lon="-1.08019">
        <ele>120</ele>
        <time>2024-10-17T23:15:28.697Z</time>
      </trkpt>
      <trkpt lat="46.97803" lon="-1.07888">
        <ele>121</ele>
        <time>2024-10-17T23:15:57.648Z</time>
      </trkpt>
      <trkpt lat="46.977" lon="-1.07805">
        <ele>122</ele>
        <time>2024-10-17T23:16:18.511Z</time>
      </trkpt>
      <trkpt lat="46.97573" lon="-1.07723">
        <ele>123</ele>
        <time>2024-10-17T23:16:44.678Z</time>
      </trkpt>
      <trkpt lat="46.97464" lon="-1.07662">
        <ele>123</ele>
        <time>2024-10-17T23:17:02.283Z</time>
      </trkpt>
      <trkpt lat="46.97358" lon="-1.07613">
        <ele>123</ele>
        <time>2024-10-17T23:17:20.437Z</time>
      </trkpt>
      <trkpt lat="46.97227" lon="-1.07561">
        <ele>123.1</ele>
        <time>2024-10-17T23:17:46.114Z</time>
      </trkpt>
      <trkpt lat="46.97151" lon="-1.07538">
        <ele>121.8</ele>
        <time>2024-10-17T23:17:57.384Z</time>
      </trkpt>
      <trkpt lat="46.97045" lon="-1.07511">
        <ele>121</ele>
        <time>2024-10-17T23:18:12.263Z</time>
      </trkpt>
      <trkpt lat="46.9696" lon="-1.07494">
        <ele>120.7</ele>
        <time>2024-10-17T23:18:26.275Z</time>
      </trkpt>
      <trkpt lat="46.96834" lon="-1.07481">
        <ele>121</ele>
        <time>2024-10-17T23:18:46.906Z</time>
      </trkpt>
      <trkpt lat="46.96679" lon="-1.07467">
        <ele>121.1</ele>
        <time>2024-10-17T23:19:10.794Z</time>
      </trkpt>
      <trkpt lat="46.96587" lon="-1.07468">
        <ele>120</ele>
        <time>2024-10-17T23:19:27.519Z</time>
      </trkpt>
      <trkpt lat="46.9648" lon="-1.07494">
        <ele>116.3</ele>
        <time>2024-10-17T23:19:39.666Z</time>
      </trkpt>
      <trkpt lat="46.96408" lon="-1.07528">
        <ele>113</ele>
        <time>2024-10-17T23:19:49.477Z</time>
      </trkpt>
      <trkpt lat="46.96351" lon="-1.07549">
        <ele>110.6</ele>
        <time>2024-10-17T23:19:56.662Z</time>
      </trkpt>
      <trkpt lat="46.96297" lon="-1.0754">
        <ele>108.2</ele>
        <time>2024-10-17T23:20:04.191Z</time>
      </trkpt>
      <trkpt lat="46.96227" lon="-1.07505">
        <ele>104.9</ele>
        <time>2024-10-17T23:20:12.039Z</time>
      </trkpt>
      <trkpt lat="46.96206" lon="-1.07508">
        <ele>103.9</ele>
        <time>2024-10-17T23:20:14.106Z</time>
      </trkpt>
      <trkpt lat="46.96191" lon="-1.07515">
        <ele>103.4</ele>
        <time>2024-10-17T23:20:16.678Z</time>
      </trkpt>
      <trkpt lat="46.96171" lon="-1.0753">
        <ele>101.5</ele>
        <time>2024-10-17T23:20:19.222Z</time>
      </trkpt>
      <trkpt lat="46.96141" lon="-1.07565">
        <ele>99.8</ele>
        <time>2024-10-17T23:20:23.343Z</time>
      </trkpt>
      <trkpt lat="46.96103" lon="-1.07599">
        <ele>98.2</ele>
        <time>2024-10-17T23:20:29.306Z</time>
      </trkpt>
      <trkpt lat="46.96059" lon="-1.07608">
        <ele>95.6</ele>
        <time>2024-10-17T23:20:33.660Z</time>
      </trkpt>
      <trkpt lat="46.9602" lon="-1.07602">
        <ele>93.7</ele>
        <time>2024-10-17T23:20:37.503Z</time>
      </trkpt>
      <trkpt lat="46.95978" lon="-1.07572">
        <ele>92.4</ele>
        <time>2024-10-17T23:20:45.135Z</time>
      </trkpt>
      <trkpt lat="46.95948" lon="-1.0754">
        <ele>93</ele>
        <time>2024-10-17T23:20:49.928Z</time>
      </trkpt>
      <trkpt lat="46.95924" lon="-1.07501">
        <ele>94.9</ele>
        <time>2024-10-17T23:21:00.933Z</time>
      </trkpt>
      <trkpt lat="46.95899" lon="-1.07453">
        <ele>98.5</ele>
        <time>2024-10-17T23:21:09.572Z</time>
      </trkpt>
      <trkpt lat="46.95874" lon="-1.07435">
        <ele>99.4</ele>
        <time>2024-10-17T23:21:16.244Z</time>
      </trkpt>
      <trkpt lat="46.9585" lon="-1.07433">
        <ele>100.7</ele>
        <time>2024-10-17T23:21:22.412Z</time>
      </trkpt>
      <trkpt lat="46.95821" lon="-1.07445">
        <ele>102</ele>
        <time>2024-10-17T23:21:33.060Z</time>
      </trkpt>
      <trkpt lat="46.95798" lon="-1.07473">
        <ele>103.5</ele>
        <time>2024-10-17T23:21:49.615Z</time>
      </trkpt>
      <trkpt lat="46.95746" lon="-1.07523">
        <ele>108.3</ele>
        <time>2024-10-17T23:22:16.209Z</time>
      </trkpt>
      <trkpt lat="46.95707" lon="-1.0754">
        <ele>111.3</ele>
        <time>2024-10-17T23:22:38.196Z</time>
      </trkpt>
      <trkpt lat="46.95672" lon="-1.07545">
        <ele>113.9</ele>
        <time>2024-10-17T23:22:45.921Z</time>
      </trkpt>
      <trkpt lat="46.95641" lon="-1.07541">
        <ele>115.4</ele>
        <time>2024-10-17T23:22:53.054Z</time>
      </trkpt>
      <trkpt lat="46.95491" lon="-1.07547">
        <ele>121</ele>
        <time>2024-10-17T23:23:28.309Z</time>
      </trkpt>
      <trkpt lat="46.95447" lon="-1.07573">
        <ele>123.5</ele>
        <time>2024-10-17T23:23:44.382Z</time>
      </trkpt>
      <trkpt lat="46.95388" lon="-1.0764">
        <ele>126</ele>
        <time>2024-10-17T23:24:06.652Z</time>
      </trkpt>
      <trkpt lat="46.95291" lon="-1.07825">
        <ele>125</ele>
        <time>2024-10-17T23:24:29.843Z</time>
      </trkpt>
      <trkpt lat="46.95235" lon="-1.07882">
        <ele>124</ele>
        <time>2024-10-17T23:24:39.594Z</time>
      </trkpt>
      <trkpt lat="46.9517" lon="-1.07934">
        <ele>123</ele>
        <time>2024-10-17T23:24:48.225Z</time>
      </trkpt>
      <trkpt lat="46.95173" lon="-1.07943">
        <ele>123</ele>
        <time>2024-10-17T23:24:49.342Z</time>
      </trkpt>
      <trkpt lat="46.95173" lon="-1.07953">
        <ele>123</ele>
        <time>2024-10-17T23:24:50.456Z</time>
      </trkpt>
      <trkpt lat="46.95172" lon="-1.07962">
        <ele>123</ele>
        <time>2024-10-17T23:24:51.473Z</time>
      </trkpt>
      <trkpt lat="46.95168" lon="-1.0797">
        <ele>123</ele>
        <time>2024-10-17T23:24:52.579Z</time>
      </trkpt>
      <trkpt lat="46.95163" lon="-1.07976">
        <ele>123</ele>
        <time>2024-10-17T23:24:53.634Z</time>
      </trkpt>
      <trkpt lat="46.95157" lon="-1.07979">
        <ele>122.9</ele>
        <time>2024-10-17T23:24:54.670Z</time>
      </trkpt>
      <trkpt lat="46.95146" lon="-1.07976">
        <ele>122.9</ele>
        <time>2024-10-17T23:24:56.497Z</time>
      </trkpt>
      <trkpt lat="46.95138" lon="-1.07965">
        <ele>123</ele>
        <time>2024-10-17T23:24:58.289Z</time>
      </trkpt>
      <trkpt lat="46.95135" lon="-1.07957">
        <ele>123</ele>
        <time>2024-10-17T23:24:59.307Z</time>
      </trkpt>
      <trkpt lat="46.95081" lon="-1.07986">
        <ele>123</ele>
        <time>2024-10-17T23:25:10.496Z</time>
      </trkpt>
      <trkpt lat="46.94962" lon="-1.0801">
        <ele>122.6</ele>
        <time>2024-10-17T23:25:30.116Z</time>
      </trkpt>
      <trkpt lat="46.94721" lon="-1.08006">
        <ele>126.8</ele>
        <time>2024-10-17T23:26:14.644Z</time>
      </trkpt>
      <trkpt lat="46.9472" lon="-1.08006">
        <ele>126.8</ele>
        <time>2024-10-17T23:26:14.808Z</time>
      </trkpt>
      <trkpt lat="46.94536" lon="-1.08007">
        <ele>130.9</ele>
        <time>2024-10-17T23:26:52.357Z</time>
      </trkpt>
      <trkpt lat="46.94348" lon="-1.08003">
        <ele>130</ele>
        <time>2024-10-17T23:27:30.524Z</time>
      </trkpt>
      <trkpt lat="46.94131" lon="-1.08005">
        <ele>129.6</ele>
        <time>2024-10-17T23:28:14.652Z</time>
      </trkpt>
      <trkpt lat="46.94059" lon="-1.07988">
        <ele>128.1</ele>
        <time>2024-10-17T23:28:29.455Z</time>
      </trkpt>
      <trkpt lat="46.94002" lon="-1.07956">
        <ele>127.5</ele>
        <time>2024-10-17T23:28:41.914Z</time>
      </trkpt>
      <trkpt lat="46.93931" lon="-1.07896">
        <ele>124.7</ele>
        <time>2024-10-17T23:28:58.741Z</time>
      </trkpt>
      <trkpt lat="46.93759" lon="-1.07728">
        <ele>125.8</ele>
        <time>2024-10-17T23:29:40.670Z</time>
      </trkpt>
      <trkpt lat="46.93739" lon="-1.07721">
        <ele>126.1</ele>
        <time>2024-10-17T23:29:44.828Z</time>
      </trkpt>
      <trkpt lat="46.93723" lon="-1.07723">
        <ele>126</ele>
        <time>2024-10-17T23:29:48.121Z</time>
      </trkpt>
      <trkpt lat="46.93708" lon="-1.07718">
        <ele>126.2</ele>
        <time>2024-10-17T23:29:51.339Z</time>
      </trkpt>
      <trkpt lat="46.93695" lon="-1.07692">
        <ele>126</ele>
        <time>2024-10-17T23:29:55.811Z</time>
      </trkpt>
      <trkpt lat="46.937" lon="-1.07665">
        <ele>126.2</ele>
        <time>2024-10-17T23:29:59.681Z</time>
      </trkpt>
      <trkpt lat="46.93687" lon="-1.07634">
        <ele>126.1</ele>
        <time>2024-10-17T23:30:04.770Z</time>
      </trkpt>
      <trkpt lat="46.93642" lon="-1.07576">
        <ele>127.3</ele>
        <time>2024-10-17T23:30:16.916Z</time>
      </trkpt>
      <trkpt lat="46.93448" lon="-1.07368">
        <ele>132.9</ele>
        <time>2024-10-17T23:31:05.763Z</time>
      </trkpt>
      <trkpt lat="46.93402" lon="-1.073">
        <ele>132.1</ele>
        <time>2024-10-17T23:31:19.047Z</time>
      </trkpt>
      <trkpt lat="46.93353" lon="-1.07197">
        <ele>130.4</ele>
        <time>2024-10-17T23:31:36.587Z</time>
      </trkpt>
      <trkpt lat="46.93325" lon="-1.07093">
        <ele>132.9</ele>
        <time>2024-10-17T23:31:52.120Z</time>
      </trkpt>
      <trkpt lat="46.93153" lon="-1.06348">
        <ele>154.5</ele>
        <time>2024-10-17T23:33:41.458Z</time>
      </trkpt>
      <trkpt lat="46.93066" lon="-1.05972">
        <ele>162.4</ele>
        <time>2024-10-17T23:34:36.586Z</time>
      </trkpt>
      <trkpt lat="46.93056" lon="-1.05903">
        <ele>160.5</ele>
        <time>2024-10-17T23:34:46.359Z</time>
      </trkpt>
      <trkpt lat="46.93051" lon="-1.05842">
        <ele>160.6</ele>
        <time>2024-10-17T23:34:54.904Z</time>
      </trkpt>
      <trkpt lat="46.93051" lon="-1.05789">
        <ele>166.7</ele>
        <time>2024-10-17T23:35:02.362Z</time>
      </trkpt>
      <trkpt lat="46.93061" lon="-1.05725">
        <ele>170.1</ele>
        <time>2024-10-17T23:35:11.402Z</time>
      </trkpt>
      <trkpt lat="46.93075" lon="-1.05669">
        <ele>171</ele>
        <time>2024-10-17T23:35:19.658Z</time>
      </trkpt>
      <trkpt lat="46.93098" lon="-1.05608">
        <ele>174.7</ele>
        <time>2024-10-17T23:35:29.333Z</time>
      </trkpt>
      <trkpt lat="46.93128" lon="-1.05555">
        <ele>178.1</ele>
        <time>2024-10-17T23:35:38.974Z</time>
      </trkpt>
      <trkpt lat="46.9315" lon="-1.05521">
        <ele>182.2</ele>
        <time>2024-10-17T23:35:45.511Z</time>
      </trkpt>
      <trkpt lat="46.93142" lon="-1.05504">
        <ele>182.8</ele>
        <time>2024-10-17T23:35:48.493Z</time>
      </trkpt>
      <trkpt lat="46.93139" lon="-1.05495">
        <ele>183</ele>
        <time>2024-10-17T23:35:49.907Z</time>
      </trkpt>
      <trkpt lat="46.93114" lon="-1.05478">
        <ele>181.9</ele>
        <time>2024-10-17T23:35:55.448Z</time>
      </trkpt>
      <trkpt lat="46.92824" lon="-1.05336">
        <ele>175.2</ele>
        <time>2024-10-17T23:36:57.881Z</time>
      </trkpt>
      <trkpt lat="46.92534" lon="-1.05193">
        <ele>167.4</ele>
        <time>2024-10-17T23:38:00.034Z</time>
      </trkpt>
      <trkpt lat="46.92183" lon="-1.05022">
        <ele>161.8</ele>
        <time>2024-10-17T23:39:15.302Z</time>
      </trkpt>
      <trkpt lat="46.91806" lon="-1.04838">
        <ele>149</ele>
        <time>2024-10-17T23:40:36.282Z</time>
      </trkpt>
      <trkpt lat="46.91638" lon="-1.04741">
        <ele>141.6</ele>
        <time>2024-10-17T23:41:12.980Z</time>
      </trkpt>
      <trkpt lat="46.91563" lon="-1.04707">
        <ele>138.5</ele>
        <time>2024-10-17T23:41:28.924Z</time>
      </trkpt>
      <trkpt lat="46.9151" lon="-1.047">
        <ele>135.7</ele>
        <time>2024-10-17T23:41:39.862Z</time>
      </trkpt>
      <trkpt lat="46.9148" lon="-1.04706">
        <ele>134</ele>
        <time>2024-10-17T23:41:46.042Z</time>
      </trkpt>
      <trkpt lat="46.91468" lon="-1.04706">
        <ele>133.3</ele>
        <time>2024-10-17T23:41:48.428Z</time>
      </trkpt>
      <trkpt lat="46.91469" lon="-1.04679">
        <ele>134.3</ele>
        <time>2024-10-17T23:41:52.159Z</time>
      </trkpt>
      <trkpt lat="46.91488" lon="-1.0461">
        <ele>135.6</ele>
        <time>2024-10-17T23:42:02.519Z</time>
      </trkpt>
      <trkpt lat="46.9148" lon="-1.04592">
        <ele>135.8</ele>
        <time>2024-10-17T23:42:05.623Z</time>
      </trkpt>
      <trkpt lat="46.91455" lon="-1.04559">
        <ele>135</ele>
        <time>2024-10-17T23:42:12.485Z</time>
      </trkpt>
      <trkpt lat="46.91413" lon="-1.04494">
        <ele>134.7</ele>
        <time>2024-10-17T23:42:24.937Z</time>
      </trkpt>
      <trkpt lat="46.91357" lon="-1.04366">
        <ele>131.2</ele>
        <time>2024-10-17T23:42:45.997Z</time>
      </trkpt>
      <trkpt lat="46.91317" lon="-1.0428">
        <ele>126</ele>
        <time>2024-10-17T23:43:00.478Z</time>
      </trkpt>
      <trkpt lat="46.91274" lon="-1.0422">
        <ele>122.8</ele>
        <time>2024-10-17T23:43:12.612Z</time>
      </trkpt>
      <trkpt lat="46.91229" lon="-1.04171">
        <ele>119.3</ele>
        <time>2024-10-17T23:43:24.008Z</time>
      </trkpt>
      <trkpt lat="46.91193" lon="-1.04141">
        <ele>117</ele>
        <time>2024-10-17T23:43:32.444Z</time>
      </trkpt>
      <trkpt lat="46.9115" lon="-1.04118">
        <ele>116.1</ele>
        <time>2024-10-17T23:43:41.754Z</time>
      </trkpt>
      <trkpt lat="46.91079" lon="-1.04085">
        <ele>119.9</ele>
        <time>2024-10-17T23:43:56.944Z</time>
      </trkpt>
      <trkpt lat="46.90993" lon="-1.04052">
        <ele>123.4</ele>
        <time>2024-10-17T23:44:14.999Z</time>
      </trkpt>
      <trkpt lat="46.90957" lon="-1.04048">
        <ele>125.4</ele>
        <time>2024-10-17T23:44:22.322Z</time>
      </trkpt>
      <trkpt lat="46.90906" lon="-1.04073">
        <ele>127.1</ele>
        <time>2024-10-17T23:44:33.171Z</time>
      </trkpt>
      <trkpt lat="46.90854" lon="-1.04124">
        <ele>128.8</ele>
        <time>2024-10-17T23:44:45.955Z</time>
      </trkpt>
      <trkpt lat="46.90808" lon="-1.04164">
        <ele>129</ele>
        <time>2024-10-17T23:44:56.983Z</time>
      </trkpt>
      <trkpt lat="46.90758" lon="-1.04187">
        <ele>129.8</ele>
        <time>2024-10-17T23:45:07.600Z</time>
      </trkpt>
      <trkpt lat="46.90722" lon="-1.04193">
        <ele>130</ele>
        <time>2024-10-17T23:45:14.964Z</time>
      </trkpt>
      <trkpt lat="46.90658" lon="-1.04203">
        <ele>129.7</ele>
        <time>2024-10-17T23:45:28.012Z</time>
      </trkpt>
      <trkpt lat="46.90568" lon="-1.04201">
        <ele>129.2</ele>
        <time>2024-10-17T23:45:46.364Z</time>
      </trkpt>
      <trkpt lat="46.90487" lon="-1.04182">
        <ele>128.2</ele>
        <time>2024-10-17T23:46:02.969Z</time>
      </trkpt>
      <trkpt lat="46.90429" lon="-1.04166">
        <ele>127.4</ele>
        <time>2024-10-17T23:46:15.111Z</time>
      </trkpt>
      <trkpt lat="46.90363" lon="-1.04136">
        <ele>125.2</ele>
        <time>2024-10-17T23:46:29.173Z</time>
      </trkpt>
      <trkpt lat="46.90291" lon="-1.04099">
        <ele>123.2</ele>
        <time>2024-10-17T23:46:44.698Z</time>
      </trkpt>
      <trkpt lat="46.90214" lon="-1.0405">
        <ele>124.3</ele>
        <time>2024-10-17T23:47:01.741Z</time>
      </trkpt>
      <trkpt lat="46.90178" lon="-1.04029">
        <ele>125.6</ele>
        <time>2024-10-17T23:47:09.637Z</time>
      </trkpt>
      <trkpt lat="46.90161" lon="-1.04047">
        <ele>126</ele>
        <time>2024-10-17T23:47:13.903Z</time>
      </trkpt>
      <trkpt lat="46.90144" lon="-1.04021">
        <ele>126.2</ele>
        <time>2024-10-17T23:47:18.861Z</time>
      </trkpt>
      <trkpt lat="46.90126" lon="-1.04003">
        <ele>126.9</ele>
        <time>2024-10-17T23:47:23.288Z</time>
      </trkpt>
      <trkpt lat="46.90108" lon="-1.03983">
        <ele>127.5</ele>
        <time>2024-10-17T23:47:28.000Z</time>
      </trkpt>
      <trkpt lat="46.90047" lon="-1.03941">
        <ele>126.8</ele>
        <time>2024-10-17T23:47:41.730Z</time>
      </trkpt>
      <trkpt lat="46.89874" lon="-1.03808">
        <ele>127.4</ele>
        <time>2024-10-17T23:48:21.374Z</time>
      </trkpt>
      <trkpt lat="46.89734" lon="-1.03703">
        <ele>128.4</ele>
        <time>2024-10-17T23:48:53.405Z</time>
      </trkpt>
      <trkpt lat="46.89569" lon="-1.03581">
        <ele>126.1</ele>
        <time>2024-10-17T23:49:31.174Z</time>
      </trkpt>
      <trkpt lat="46.89448" lon="-1.03486">
        <ele>126.6</ele>
        <time>2024-10-17T23:49:59.077Z</time>
      </trkpt>
      <trkpt lat="46.89276" lon="-1.03361">
        <ele>124.9</ele>
        <time>2024-10-17T23:50:38.115Z</time>
      </trkpt>
      <trkpt lat="46.89139" lon="-1.03254">
        <ele>122.7</ele>
        <time>2024-10-17T23:51:09.689Z</time>
      </trkpt>
      <trkpt lat="46.8898" lon="-1.03135">
        <ele>123.1</ele>
        <time>2024-10-17T23:51:46.062Z</time>
      </trkpt>
      <trkpt lat="46.88934" lon="-1.03108">
        <ele>124</ele>
        <time>2024-10-17T23:51:56.176Z</time>
      </trkpt>
      <trkpt lat="46.88896" lon="-1.03108">
        <ele>124.1</ele>
        <time>2024-10-17T23:52:03.786Z</time>
      </trkpt>
      <trkpt lat="46.8883" lon="-1.03141">
        <ele>124.7</ele>
        <time>2024-10-17T23:52:18.085Z</time>
      </trkpt>
      <trkpt lat="46.88811" lon="-1.03086">
        <ele>124.4</ele>
        <time>2024-10-17T23:52:26.559Z</time>
      </trkpt>
      <trkpt lat="46.88772" lon="-1.03007">
        <ele>125.5</ele>
        <time>2024-10-17T23:52:40.230Z</time>
      </trkpt>
      <trkpt lat="46.88742" lon="-1.02968">
        <ele>126.2</ele>
        <time>2024-10-17T23:52:48.359Z</time>
      </trkpt>
      <trkpt lat="46.88704" lon="-1.02931">
        <ele>126.6</ele>
        <time>2024-10-17T23:52:57.642Z</time>
      </trkpt>
      <trkpt lat="46.88635" lon="-1.02877">
        <ele>125.8</ele>
        <time>2024-10-17T23:53:13.471Z</time>
      </trkpt>
      <trkpt lat="46.88473" lon="-1.02753">
        <ele>123.9</ele>
        <time>2024-10-17T23:53:50.785Z</time>
      </trkpt>
      <trkpt lat="46.88253" lon="-1.02589">
        <ele>120.8</ele>
        <time>2024-10-17T23:54:40.913Z</time>
      </trkpt>
      <trkpt lat="46.882" lon="-1.02547">
        <ele>121</ele>
        <time>2024-10-17T23:54:53.134Z</time>
      </trkpt>
      <trkpt lat="46.88187" lon="-1.02553">
        <ele>120.7</ele>
        <time>2024-10-17T23:54:56.066Z</time>
      </trkpt>
      <trkpt lat="46.88174" lon="-1.02546">
        <ele>120.5</ele>
        <time>2024-10-17T23:54:58.756Z</time>
      </trkpt>
      <trkpt lat="46.8817" lon="-1.02537">
        <ele>120.7</ele>
        <time>2024-10-17T23:55:00.370Z</time>
      </trkpt>
      <trkpt lat="46.88166" lon="-1.02529">
        <ele>120.9</ele>
        <time>2024-10-17T23:55:01.654Z</time>
      </trkpt>
      <trkpt lat="46.88125" lon="-1.02496">
        <ele>119.6</ele>
        <time>2024-10-17T23:55:11.207Z</time>
      </trkpt>
      <trkpt lat="46.87958" lon="-1.02369">
        <ele>118.9</ele>
        <time>2024-10-17T23:55:49.393Z</time>
      </trkpt>
      <trkpt lat="46.87742" lon="-1.02205">
        <ele>116.9</ele>
        <time>2024-10-17T23:56:38.996Z</time>
      </trkpt>
      <trkpt lat="46.87706" lon="-1.02169">
        <ele>117.9</ele>
        <time>2024-10-17T23:56:47.903Z</time>
      </trkpt>
      <trkpt lat="46.87687" lon="-1.02171">
        <ele>117.9</ele>
        <time>2024-10-17T23:56:51.796Z</time>
      </trkpt>
      <trkpt lat="46.87675" lon="-1.02145">
        <ele>118</ele>
        <time>2024-10-17T23:56:56.173Z</time>
      </trkpt>
      <trkpt lat="46.8761" lon="-1.02101">
        <ele>116.6</ele>
        <time>2024-10-17T23:57:10.660Z</time>
      </trkpt>
      <trkpt lat="46.87447" lon="-1.01981">
        <ele>109.4</ele>
        <time>2024-10-17T23:57:47.778Z</time>
      </trkpt>
      <trkpt lat="46.87161" lon="-1.01767">
        <ele>112.8</ele>
        <time>2024-10-17T23:58:53.140Z</time>
      </trkpt>
      <trkpt lat="46.87093" lon="-1.01717">
        <ele>109.4</ele>
        <time>2024-10-17T23:59:08.694Z</time>
      </trkpt>
      <trkpt lat="46.87075" lon="-1.0171">
        <ele>108.7</ele>
        <time>2024-10-17T23:59:12.387Z</time>
      </trkpt>
      <trkpt lat="46.87075" lon="-1.01701">
        <ele>108.7</ele>
        <time>2024-10-17T23:59:13.738Z</time>
      </trkpt>
      <trkpt lat="46.8708" lon="-1.01688">
        <ele>108.6</ele>
        <time>2024-10-17T23:59:15.811Z</time>
      </trkpt>
      <trkpt lat="46.87099" lon="-1.01561">
        <ele>106</ele>
        <time>2024-10-17T23:59:33.849Z</time>
      </trkpt>
      <trkpt lat="46.87108" lon="-1.01491">
        <ele>105.8</ele>
        <time>2024-10-17T23:59:43.893Z</time>
      </trkpt>
      <trkpt lat="46.87115" lon="-1.01309">
        <ele>106.1</ele>
        <time>2024-10-18T00:00:09.156Z</time>
      </trkpt>
      <trkpt lat="46.87015" lon="-1.00974">
        <ele>102.5</ele>
        <time>2024-10-18T00:01:00.028Z</time>
      </trkpt>
      <trkpt lat="46.87003" lon="-1.00942">
        <ele>102.9</ele>
        <time>2024-10-18T00:01:05.104Z</time>
      </trkpt>
      <trkpt lat="46.86997" lon="-1.00926">
        <ele>103</ele>
        <time>2024-10-18T00:01:07.642Z</time>
      </trkpt>
      <trkpt lat="46.86999" lon="-1.00914">
        <ele>103.1</ele>
        <time>2024-10-18T00:01:09.344Z</time>
      </trkpt>
      <trkpt lat="46.86979" lon="-1.00851">
        <ele>104.8</ele>
        <time>2024-10-18T00:01:19.031Z</time>
      </trkpt>
      <trkpt lat="46.8696" lon="-1.0075">
        <ele>107.5</ele>
        <time>2024-10-18T00:01:33.632Z</time>
      </trkpt>
      <trkpt lat="46.86948" lon="-1.00668">
        <ele>108.6</ele>
        <time>2024-10-18T00:01:45.310Z</time>
      </trkpt>
      <trkpt lat="46.86853" lon="-1.00633">
        <ele>111.2</ele>
        <time>2024-10-18T00:02:04.999Z</time>
      </trkpt>
      <trkpt lat="46.86836" lon="-1.00634">
        <ele>111.2</ele>
        <time>2024-10-18T00:02:10.431Z</time>
        <extensions>
          <visugpx:TrkExtension xmlns:visugpx="https://www.visugpx.com/editgpx/">
            <visugpx:node>1</visugpx:node>
            </visugpx:TrkExtension>
        </extensions>
      </trkpt>
      <trkpt lat="46.86766" lon="-1.00654">
        <ele>110</ele>
        <time>2024-10-18T00:02:33.202Z</time>
      </trkpt>
      <trkpt lat="46.86725" lon="-1.00669">
        <ele>110</ele>
        <time>2024-10-18T00:02:46.695Z</time>
      </trkpt>
      <trkpt lat="46.86714" lon="-1.00673">
        <ele>110</ele>
        <time>2024-10-18T00:02:50.313Z</time>
      </trkpt>
      <trkpt lat="46.86712" lon="-1.00666">
        <ele>110</ele>
        <time>2024-10-18T00:02:51.968Z</time>
      </trkpt>
      <trkpt lat="46.86709" lon="-1.0066">
        <ele>110</ele>
        <time>2024-10-18T00:02:53.589Z</time>
      </trkpt>
      <trkpt lat="46.86685" lon="-1.00653">
        <ele>110.3</ele>
        <time>2024-10-18T00:03:01.394Z</time>
      </trkpt>
      <trkpt lat="46.86608" lon="-1.00631">
        <ele>112.2</ele>
        <time>2024-10-18T00:03:26.415Z</time>
      </trkpt>
      <trkpt lat="46.8659" lon="-1.00625">
        <ele>113.1</ele>
        <time>2024-10-18T00:03:32.302Z</time>
      </trkpt>
      <trkpt lat="46.86569" lon="-1.00612">
        <ele>114.1</ele>
        <time>2024-10-18T00:03:39.573Z</time>
      </trkpt>
      <trkpt lat="46.86555" lon="-1.00602">
        <ele>114.7</ele>
        <time>2024-10-18T00:03:44.540Z</time>
      </trkpt>
      <trkpt lat="46.86535" lon="-1.00588">
        <ele>114.4</ele>
        <time>2024-10-18T00:03:51.608Z</time>
      </trkpt>
      <trkpt lat="46.8652" lon="-1.00578">
        <ele>114.9</ele>
        <time>2024-10-18T00:03:56.862Z</time>
      </trkpt>
      <trkpt lat="46.86496" lon="-1.00567">
        <ele>117.2</ele>
        <time>2024-10-18T00:04:04.878Z</time>
      </trkpt>
      <trkpt lat="46.8647" lon="-1.00561">
        <ele>117.3</ele>
        <time>2024-10-18T00:04:13.267Z</time>
      </trkpt>
      <trkpt lat="46.86453" lon="-1.00561">
        <ele>117.9</ele>
        <time>2024-10-18T00:04:18.685Z</time>
      </trkpt>
      <trkpt lat="46.86422" lon="-1.00563">
        <ele>119.1</ele>
        <time>2024-10-18T00:04:28.574Z</time>
      </trkpt>
      <trkpt lat="46.86396" lon="-1.00556">
        <ele>119</ele>
        <time>2024-10-18T00:04:36.999Z</time>
      </trkpt>
      <trkpt lat="46.86388" lon="-1.00558">
        <ele>119.1</ele>
        <time>2024-10-18T00:04:39.585Z</time>
      </trkpt>
      <trkpt lat="46.86382" lon="-1.00563">
        <ele>119.2</ele>
        <time>2024-10-18T00:04:41.785Z</time>
      </trkpt>
      <trkpt lat="46.86368" lon="-1.0058">
        <ele>119.2</ele>
        <time>2024-10-18T00:04:47.582Z</time>
      </trkpt>
      <trkpt lat="46.86326" lon="-1.00624">
        <ele>118.2</ele>
        <time>2024-10-18T00:05:04.040Z</time>
        <extensions>
          <visugpx:TrkExtension xmlns:visugpx="https://www.visugpx.com/editgpx/">
            <visugpx:node>3</visugpx:node>
            </visugpx:TrkExtension>
        </extensions>
      </trkpt>
    </trkseg>
  </trk>
</gpx>